Time,TemperatureF,DewpointF,PressureIn,WindDirection,WindDirectionDegrees,WindSpeedMPH,WindSpeedGustMPH,Humidity,HourlyPrecipIn,Conditions,Clouds,dailyrainin,SoftwareType,DateUTC
2013-01-14 00:00:00,21.0,18.8,29.23,ENE,72,0.0,0.0,91,0.00,,,0.63,VWS V14.01,2013-01-14 05:00:00,
2013-01-14 00:01:00,21.0,18.8,29.23,ENE,72,0.0,0.0,91,0.00,,,0.00,VWS V14.01,2013-01-14 05:01:00,
2013-01-14 00:03:00,21.0,18.8,29.23,ENE,72,0.0,0.0,91,0.00,,,0.00,VWS V14.01,2013-01-14 05:03:00,
2013-01-14 00:05:00,20.8,18.9,29.23,ENE,72,0.0,0.0,92,0.00,,,0.00,VWS V14.01,2013-01-14 05:05:00,
2013-01-14 00:07:00,20.8,18.9,29.26,ENE,72,0.0,0.0,92,0.00,,,0.00,VWS V14.01,2013-01-14 05:07:00,
2013-01-14 00:08:00,20.7,18.5,29.26,ENE,72,0.0,0.0,91,0.00,,,0.00,VWS V14.01,2013-01-14 05:08:00,
2013-01-14 00:10:00,20.7,18.5,29.26,ENE,72,0.0,0.0,91,0.00,,,0.00,VWS V14.01,2013-01-14 05:10:00,
2013-01-14 00:12:00,20.7,18.5,29.26,ENE,72,0.0,0.0,91,0.00,,,0.00,VWS V14.01,2013-01-14 05:12:00,
2013-01-14 00:13:00,20.5,18.3,29.26,ENE,72,0.0,0.0,91,0.00,,,0.00,VWS V14.01,2013-01-14 05:13:00,
2013-01-14 00:15:00,20.5,18.3,29.26,ENE,72,0.0,0.0,91,0.00,,,0.00,VWS V14.01,2013-01-14 05:15:00,
2013-01-14 00:16:00,20.5,18.3,29.26,ENE,72,0.0,0.0,91,0.00,,,0.00,VWS V14.01,2013-01-14 05:16:00,
2013-01-14 00:17:00,20.5,18.3,29.26,ENE,72,0.0,0.0,91,0.00,,,0.00,VWS V14.01,2013-01-14 05:17:00,
2013-01-14 00:18:00,20.5,18.3,29.26,ENE,72,0.0,0.0,91,0.00,,,0.00,VWS V14.01,2013-01-14 05:18:00,
2013-01-14 00:20:00,20.5,18.3,29.26,ENE,72,0.0,0.0,91,0.00,,,0.00,VWS V14.01,2013-01-14 05:20:00,
2013-01-14 00:21:00,20.5,18.3,29.26,ENE,72,0.0,0.0,91,0.00,,,0.00,VWS V14.01,2013-01-14 05:21:00,
2013-01-14 00:22:00,20.3,17.8,29.26,ENE,72,0.0,0.0,90,0.00,,,0.00,VWS V14.01,2013-01-14 05:22:00,
2013-01-14 00:23:00,20.3,17.8,29.26,ENE,72,0.0,0.0,90,0.00,,,0.00,VWS V14.01,2013-01-14 05:23:00,
2013-01-14 00:25:00,20.3,17.8,29.26,ENE,72,0.0,0.0,90,0.00,,,0.00,VWS V14.01,2013-01-14 05:25:00,
2013-01-14 00:26:00,20.3,17.8,29.26,ENE,72,0.0,0.0,90,0.00,,,0.00,VWS V14.01,2013-01-14 05:26:00,
2013-01-14 00:27:00,20.3,17.8,29.26,ENE,72,0.0,0.0,90,0.00,,,0.00,VWS V14.01,2013-01-14 05:27:00,
2013-01-14 00:28:00,20.3,17.8,29.26,ENE,72,0.0,0.0,90,0.00,,,0.00,VWS V14.01,2013-01-14 05:28:00,
2013-01-14 00:30:00,19.9,17.2,29.26,ENE,72,0.0,0.0,89,0.00,,,0.00,VWS V14.01,2013-01-14 05:30:00,
2013-01-14 00:31:00,19.9,17.2,29.26,ENE,72,0.0,0.0,89,0.00,,,0.00,VWS V14.01,2013-01-14 05:31:00,
2013-01-14 00:32:00,19.8,17.0,29.26,ENE,72,0.0,0.0,89,0.00,,,0.00,VWS V14.01,2013-01-14 05:32:00,
2013-01-14 00:33:00,19.8,17.0,29.26,ENE,72,0.0,0.0,89,0.00,,,0.00,VWS V14.01,2013-01-14 05:33:00,
2013-01-14 00:35:00,19.8,16.8,29.26,ENE,72,0.0,0.0,88,0.00,,,0.00,VWS V14.01,2013-01-14 05:35:00,
2013-01-14 00:36:00,19.6,16.6,29.26,ENE,72,0.0,0.0,88,0.00,,,0.00,VWS V14.01,2013-01-14 05:36:00,
2013-01-14 00:37:00,19.6,16.6,29.26,ENE,72,0.0,0.0,88,0.00,,,0.00,VWS V14.01,2013-01-14 05:37:00,
2013-01-14 00:38:00,19.6,16.6,29.26,ENE,72,0.0,0.0,88,0.00,,,0.00,VWS V14.01,2013-01-14 05:38:00,
2013-01-14 00:40:00,19.6,16.6,29.26,ENE,72,0.0,0.0,88,0.00,,,0.00,VWS V14.01,2013-01-14 05:40:00,
2013-01-14 00:41:00,19.6,16.6,29.26,ENE,72,0.0,0.0,88,0.00,,,0.00,VWS V14.01,2013-01-14 05:41:00,
2013-01-14 00:42:00,19.6,16.6,29.26,ENE,72,0.0,0.0,88,0.00,,,0.00,VWS V14.01,2013-01-14 05:42:00,
2013-01-14 00:43:00,19.6,17.1,29.26,ENE,72,0.0,0.0,90,0.00,,,0.00,VWS V14.01,2013-01-14 05:43:00,
2013-01-14 00:45:00,19.6,17.1,29.26,ENE,72,0.0,0.0,90,0.00,,,0.00,VWS V14.01,2013-01-14 05:45:00,
2013-01-14 00:46:00,19.6,17.1,29.26,ENE,72,0.0,0.0,90,0.00,,,0.00,VWS V14.01,2013-01-14 05:46:00,
2013-01-14 00:47:00,19.6,17.1,29.26,ENE,72,0.0,0.0,90,0.00,,,0.00,VWS V14.01,2013-01-14 05:47:00,
2013-01-14 00:48:00,19.6,17.1,29.26,ENE,72,0.0,0.0,90,0.00,,,0.00,VWS V14.01,2013-01-14 05:48:00,
2013-01-14 00:50:00,19.6,17.1,29.26,ENE,72,0.0,0.0,90,0.00,,,0.00,VWS V14.01,2013-01-14 05:50:00,
2013-01-14 00:51:00,19.4,17.0,29.26,ENE,72,0.0,0.0,90,0.00,,,0.00,VWS V14.01,2013-01-14 05:51:00,
2013-01-14 00:52:00,19.4,17.0,29.26,ENE,72,0.0,0.0,90,0.00,,,0.00,VWS V14.01,2013-01-14 05:52:00,
2013-01-14 00:54:00,19.4,17.0,29.26,ENE,72,0.0,0.0,90,0.00,,,0.00,VWS V14.01,2013-01-14 05:54:00,
2013-01-14 00:55:00,19.4,17.0,29.26,ENE,72,0.0,0.0,90,0.00,,,0.00,VWS V14.01,2013-01-14 05:55:00,
2013-01-14 00:56:00,19.4,17.0,29.26,ENE,72,0.0,0.0,90,0.00,,,0.00,VWS V14.01,2013-01-14 05:56:00,
2013-01-14 00:57:00,19.4,17.0,29.26,ENE,72,0.0,0.0,90,0.00,,,0.00,VWS V14.01,2013-01-14 05:57:00,
2013-01-14 00:59:00,19.4,17.0,29.26,ENE,72,0.0,0.0,90,0.00,,,0.00,VWS V14.01,2013-01-14 05:59:00,
2013-01-14 01:01:00,19.2,16.5,29.26,ENE,72,0.0,0.0,89,0.00,,,0.00,VWS V14.01,2013-01-14 06:01:00,
2013-01-14 01:02:00,19.2,16.5,29.26,ENE,72,0.0,0.0,89,0.00,,,0.00,VWS V14.01,2013-01-14 06:02:00,
2013-01-14 01:04:00,19.2,16.5,29.26,ENE,72,0.0,0.0,89,0.00,,,0.00,VWS V14.01,2013-01-14 06:04:00,
2013-01-14 01:06:00,19.0,16.1,29.26,ENE,72,0.0,0.0,88,0.00,,,0.00,VWS V14.01,2013-01-14 06:06:00,
2013-01-14 01:07:00,19.0,16.1,29.26,ENE,72,0.0,0.0,88,0.00,,,0.00,VWS V14.01,2013-01-14 06:07:00,
2013-01-14 01:09:00,19.0,16.1,29.26,ENE,72,0.0,0.0,88,0.00,,,0.00,VWS V14.01,2013-01-14 06:09:00,
2013-01-14 01:11:00,19.0,16.1,29.26,ENE,72,0.0,0.0,88,0.00,,,0.00,VWS V14.01,2013-01-14 06:11:00,
2013-01-14 01:12:00,19.0,16.1,29.26,ENE,72,0.0,0.0,88,0.00,,,0.00,VWS V14.01,2013-01-14 06:12:00,
2013-01-14 01:14:00,19.0,16.3,29.26,ENE,72,0.0,0.0,89,0.00,,,0.00,VWS V14.01,2013-01-14 06:14:00,
2013-01-14 01:16:00,18.9,16.2,29.26,ENE,72,0.0,0.0,89,0.00,,,0.00,VWS V14.01,2013-01-14 06:16:00,
2013-01-14 01:17:00,18.9,16.2,29.26,ENE,72,0.0,0.0,89,0.00,,,0.00,VWS V14.01,2013-01-14 06:17:00,
2013-01-14 01:19:00,18.5,15.6,29.26,ENE,72,0.0,0.0,88,0.00,,,0.00,VWS V14.01,2013-01-14 06:19:00,
2013-01-14 01:21:00,18.7,16.0,29.26,ENE,72,0.0,0.0,89,0.00,,,0.00,VWS V14.01,2013-01-14 06:21:00,
2013-01-14 01:22:00,18.7,16.0,29.29,ENE,72,0.0,0.0,89,0.00,,,0.00,VWS V14.01,2013-01-14 06:22:00,
2013-01-14 01:23:00,18.7,16.0,29.29,ENE,72,0.0,0.0,89,0.00,,,0.00,VWS V14.01,2013-01-14 06:23:00,
2013-01-14 01:25:00,18.5,15.8,29.29,ENE,72,0.0,0.0,89,0.00,,,0.00,VWS V14.01,2013-01-14 06:25:00,
2013-01-14 01:26:00,18.5,15.6,29.29,ENE,72,0.0,0.0,88,0.00,,,0.00,VWS V14.01,2013-01-14 06:26:00,
2013-01-14 01:27:00,18.5,15.6,29.29,ENE,72,0.0,0.0,88,0.00,,,0.00,VWS V14.01,2013-01-14 06:27:00,
2013-01-14 01:28:00,18.5,15.6,29.29,ENE,72,0.0,0.0,88,0.00,,,0.00,VWS V14.01,2013-01-14 06:28:00,
2013-01-14 01:30:00,18.3,15.4,29.29,ENE,72,0.0,0.0,88,0.00,,,0.00,VWS V14.01,2013-01-14 06:30:00,
2013-01-14 01:31:00,18.3,15.4,29.29,ENE,72,0.0,0.0,88,0.00,,,0.00,VWS V14.01,2013-01-14 06:31:00,
2013-01-14 01:32:00,18.3,15.4,29.29,ENE,72,0.0,0.0,88,0.00,,,0.00,VWS V14.01,2013-01-14 06:32:00,
2013-01-14 01:33:00,18.3,15.4,29.29,ENE,72,0.0,0.0,88,0.00,,,0.00,VWS V14.01,2013-01-14 06:33:00,
2013-01-14 01:35:00,18.3,15.4,29.29,ENE,72,0.0,0.0,88,0.00,,,0.00,VWS V14.01,2013-01-14 06:35:00,
2013-01-14 01:36:00,18.1,15.2,29.29,ENE,72,0.0,0.0,88,0.00,,,0.00,VWS V14.01,2013-01-14 06:36:00,
2013-01-14 01:37:00,18.1,15.2,29.29,ENE,72,0.0,0.0,88,0.00,,,0.00,VWS V14.01,2013-01-14 06:37:00,
2013-01-14 01:38:00,18.1,15.2,29.29,ENE,72,0.0,0.0,88,0.00,,,0.00,VWS V14.01,2013-01-14 06:38:00,
2013-01-14 01:40:00,18.1,15.2,29.29,ENE,72,0.0,0.0,88,0.00,,,0.00,VWS V14.01,2013-01-14 06:40:00,
2013-01-14 01:41:00,18.1,15.4,29.29,ENE,72,0.0,0.0,89,0.00,,,0.00,VWS V14.01,2013-01-14 06:41:00,
2013-01-14 01:42:00,18.1,15.4,29.29,ENE,72,0.0,0.0,89,0.00,,,0.00,VWS V14.01,2013-01-14 06:42:00,
2013-01-14 01:43:00,18.1,15.4,29.29,ENE,72,0.0,0.0,89,0.00,,,0.00,VWS V14.01,2013-01-14 06:43:00,
2013-01-14 01:45:00,18.1,15.4,29.29,ENE,72,0.0,0.0,89,0.00,,,0.00,VWS V14.01,2013-01-14 06:45:00,
2013-01-14 01:46:00,18.1,15.4,29.29,ENE,72,0.0,0.0,89,0.00,,,0.00,VWS V14.01,2013-01-14 06:46:00,
2013-01-14 01:47:00,18.0,15.3,29.29,ENE,72,0.0,0.0,89,0.00,,,0.00,VWS V14.01,2013-01-14 06:47:00,
2013-01-14 01:48:00,18.0,15.3,29.29,ENE,72,0.0,0.0,89,0.00,,,0.00,VWS V14.01,2013-01-14 06:48:00,
2013-01-14 01:50:00,17.8,15.1,29.29,ENE,72,0.0,0.0,89,0.00,,,0.00,VWS V14.01,2013-01-14 06:50:00,
2013-01-14 01:51:00,17.8,15.1,29.29,ENE,72,0.0,0.0,89,0.00,,,0.00,VWS V14.01,2013-01-14 06:51:00,
2013-01-14 01:52:00,17.8,15.1,29.29,ENE,72,0.0,0.0,89,0.00,,,0.00,VWS V14.01,2013-01-14 06:52:00,
2013-01-14 01:53:00,17.8,15.1,29.29,ENE,72,0.0,0.0,89,0.00,,,0.00,VWS V14.01,2013-01-14 06:53:00,
2013-01-14 01:55:00,17.8,15.1,29.29,ENE,72,0.0,0.0,89,0.00,,,0.00,VWS V14.01,2013-01-14 06:55:00,
2013-01-14 01:56:00,17.8,15.1,29.29,ENE,72,0.0,0.0,89,0.00,,,0.00,VWS V14.01,2013-01-14 06:56:00,
2013-01-14 01:57:00,17.8,15.4,29.29,ENE,72,0.0,0.0,90,0.00,,,0.00,VWS V14.01,2013-01-14 06:57:00,
2013-01-14 01:58:00,17.8,15.4,29.29,ENE,72,0.0,0.0,90,0.00,,,0.00,VWS V14.01,2013-01-14 06:58:00,
2013-01-14 02:01:00,17.8,15.4,29.29,ENE,72,0.0,0.0,90,0.00,,,0.00,VWS V14.01,2013-01-14 07:01:00,
2013-01-14 02:02:00,17.8,15.4,29.29,ENE,72,0.0,0.0,90,0.00,,,0.00,VWS V14.01,2013-01-14 07:02:00,
2013-01-14 02:03:00,17.8,15.4,29.29,ENE,72,0.0,0.0,90,0.00,,,0.00,VWS V14.01,2013-01-14 07:03:00,
2013-01-14 02:06:00,17.8,15.4,29.29,ENE,72,0.0,0.0,90,0.00,,,0.00,VWS V14.01,2013-01-14 07:06:00,
2013-01-14 02:07:00,17.8,15.4,29.29,ENE,72,0.0,0.0,90,0.00,,,0.00,VWS V14.01,2013-01-14 07:07:00,
2013-01-14 02:08:00,17.8,15.4,29.29,ENE,72,0.0,0.0,90,0.00,,,0.00,VWS V14.01,2013-01-14 07:08:00,
2013-01-14 02:11:00,17.6,15.2,29.32,ENE,72,0.0,0.0,90,0.00,,,0.00,VWS V14.01,2013-01-14 07:11:00,
2013-01-14 02:12:00,17.6,15.2,29.32,ENE,72,0.0,0.0,90,0.00,,,0.00,VWS V14.01,2013-01-14 07:12:00,
2013-01-14 02:13:00,17.6,15.2,29.32,ENE,72,0.0,0.0,90,0.00,,,0.00,VWS V14.01,2013-01-14 07:13:00,
2013-01-14 02:16:00,17.6,15.2,29.32,ENE,72,0.0,0.0,90,0.00,,,0.00,VWS V14.01,2013-01-14 07:16:00,
2013-01-14 02:17:00,17.6,15.2,29.32,ENE,72,0.0,0.0,90,0.00,,,0.00,VWS V14.01,2013-01-14 07:17:00,
2013-01-14 02:18:00,17.6,15.2,29.32,ENE,72,0.0,0.0,90,0.00,,,0.00,VWS V14.01,2013-01-14 07:18:00,
2013-01-14 02:21:00,17.6,15.2,29.32,ENE,72,0.0,0.0,90,0.00,,,0.00,VWS V14.01,2013-01-14 07:21:00,
2013-01-14 02:22:00,17.6,15.2,29.32,ENE,72,0.0,0.0,90,0.00,,,0.00,VWS V14.01,2013-01-14 07:22:00,
2013-01-14 02:23:00,17.6,15.2,29.32,ENE,72,0.0,0.0,90,0.00,,,0.00,VWS V14.01,2013-01-14 07:23:00,
2013-01-14 02:26:00,17.6,15.2,29.32,ENE,72,0.0,0.0,90,0.00,,,0.00,VWS V14.01,2013-01-14 07:26:00,
2013-01-14 02:28:00,17.6,15.2,29.32,ENE,72,0.0,0.0,90,0.00,,,0.00,VWS V14.01,2013-01-14 07:28:00,
2013-01-14 02:31:00,17.8,15.6,29.32,ENE,72,0.0,0.0,91,0.00,,,0.00,VWS V14.01,2013-01-14 07:31:00,
2013-01-14 02:33:00,17.8,15.6,29.32,ENE,72,0.0,0.0,91,0.00,,,0.00,VWS V14.01,2013-01-14 07:33:00,
2013-01-14 02:36:00,17.8,15.6,29.32,ENE,72,0.0,0.0,91,0.00,,,0.00,VWS V14.01,2013-01-14 07:36:00,
2013-01-14 02:37:00,17.8,15.6,29.32,ENE,72,0.0,0.0,91,0.00,,,0.00,VWS V14.01,2013-01-14 07:37:00,
2013-01-14 02:38:00,17.8,15.6,29.32,ENE,72,0.0,0.0,91,0.00,,,0.00,VWS V14.01,2013-01-14 07:38:00,
2013-01-14 02:41:00,17.8,15.9,29.32,ENE,72,0.0,0.0,92,0.00,,,0.00,VWS V14.01,2013-01-14 07:41:00,
2013-01-14 02:42:00,17.8,15.9,29.32,ENE,72,0.0,0.0,92,0.00,,,0.00,VWS V14.01,2013-01-14 07:42:00,
2013-01-14 02:43:00,17.8,15.9,29.32,ENE,72,0.0,0.0,92,0.00,,,0.00,VWS V14.01,2013-01-14 07:43:00,
2013-01-14 02:46:00,17.8,15.9,29.32,ENE,72,0.0,0.0,92,0.00,,,0.00,VWS V14.01,2013-01-14 07:46:00,
2013-01-14 02:47:00,17.8,15.9,29.32,ENE,72,0.0,0.0,92,0.00,,,0.00,VWS V14.01,2013-01-14 07:47:00,
2013-01-14 02:48:00,17.8,15.9,29.32,ENE,72,0.0,0.0,92,0.00,,,0.00,VWS V14.01,2013-01-14 07:48:00,
2013-01-14 02:51:00,17.8,15.9,29.35,ENE,72,0.0,0.0,92,0.00,,,0.00,VWS V14.01,2013-01-14 07:51:00,
2013-01-14 02:52:00,17.8,15.9,29.35,ENE,72,0.0,0.0,92,0.00,,,0.00,VWS V14.01,2013-01-14 07:52:00,
2013-01-14 02:53:00,17.8,15.9,29.35,ENE,72,0.0,0.0,92,0.00,,,0.00,VWS V14.01,2013-01-14 07:53:00,
2013-01-14 02:56:00,17.8,15.9,29.35,ENE,72,0.0,0.0,92,0.00,,,0.00,VWS V14.01,2013-01-14 07:56:00,
2013-01-14 02:57:00,17.1,14.6,29.35,ENE,72,0.0,0.0,90,0.00,,,0.00,VWS V14.01,2013-01-14 07:57:00,
2013-01-14 02:58:00,17.1,14.6,29.35,ENE,72,0.0,0.0,90,0.00,,,0.00,VWS V14.01,2013-01-14 07:58:00,
2013-01-14 03:02:00,17.1,14.6,29.35,ENE,72,0.0,0.0,90,0.00,,,0.00,VWS V14.01,2013-01-14 08:02:00,
2013-01-14 03:03:00,17.1,14.6,29.35,ENE,72,0.0,0.0,90,0.00,,,0.00,VWS V14.01,2013-01-14 08:03:00,
2013-01-14 03:07:00,16.9,14.5,29.35,ENE,72,0.0,0.0,90,0.00,,,0.00,VWS V14.01,2013-01-14 08:07:00,
2013-01-14 03:08:00,17.1,14.6,29.35,ENE,72,0.0,0.0,90,0.00,,,0.00,VWS V14.01,2013-01-14 08:08:00,
2013-01-14 03:12:00,16.9,14.5,29.35,ENE,72,0.0,0.0,90,0.00,,,0.00,VWS V14.01,2013-01-14 08:12:00,
2013-01-14 03:13:00,16.9,14.5,29.35,ENE,72,0.0,0.0,90,0.00,,,0.00,VWS V14.01,2013-01-14 08:13:00,
2013-01-14 03:14:00,16.9,14.5,29.35,ENE,72,0.0,0.0,90,0.00,,,0.00,VWS V14.01,2013-01-14 08:14:00,
2013-01-14 03:17:00,16.9,14.5,29.35,ENE,72,0.0,0.0,90,0.00,,,0.00,VWS V14.01,2013-01-14 08:17:00,
2013-01-14 03:19:00,16.9,14.5,29.35,ENE,72,0.0,0.0,90,0.00,,,0.00,VWS V14.01,2013-01-14 08:19:00,
2013-01-14 03:22:00,16.9,14.5,29.35,ENE,72,0.0,0.0,90,0.00,,,0.00,VWS V14.01,2013-01-14 08:22:00,
2013-01-14 03:24:00,16.9,14.5,29.35,ENE,72,0.0,0.0,90,0.00,,,0.00,VWS V14.01,2013-01-14 08:24:00,
2013-01-14 03:27:00,16.9,14.5,29.35,ENE,72,0.0,0.0,90,0.00,,,0.00,VWS V14.01,2013-01-14 08:27:00,
2013-01-14 03:29:00,16.9,14.5,29.35,ENE,72,0.0,0.0,90,0.00,,,0.00,VWS V14.01,2013-01-14 08:29:00,
2013-01-14 03:32:00,16.5,13.9,29.35,ENE,72,0.0,0.0,89,0.00,,,0.00,VWS V14.01,2013-01-14 08:32:00,
2013-01-14 03:34:00,16.5,13.9,29.35,ENE,72,0.0,0.0,89,0.00,,,0.00,VWS V14.01,2013-01-14 08:34:00,
2013-01-14 03:35:00,16.5,13.9,29.35,ENE,72,0.0,0.0,89,0.00,,,0.00,VWS V14.01,2013-01-14 08:35:00,
2013-01-14 03:37:00,16.5,13.9,29.35,ENE,72,0.0,0.0,89,0.00,,,0.00,VWS V14.01,2013-01-14 08:37:00,
2013-01-14 03:38:00,16.5,13.9,29.35,ENE,72,0.0,0.0,89,0.00,,,0.00,VWS V14.01,2013-01-14 08:38:00,
2013-01-14 03:39:00,16.5,13.9,29.35,ENE,72,0.0,0.0,89,0.00,,,0.00,VWS V14.01,2013-01-14 08:39:00,
2013-01-14 03:40:00,16.5,13.9,29.35,ENE,72,0.0,0.0,89,0.00,,,0.00,VWS V14.01,2013-01-14 08:40:00,
2013-01-14 03:42:00,16.5,13.9,29.35,ENE,72,0.0,0.0,89,0.00,,,0.00,VWS V14.01,2013-01-14 08:42:00,
2013-01-14 03:43:00,16.5,13.9,29.35,ENE,72,0.0,0.0,89,0.00,,,0.00,VWS V14.01,2013-01-14 08:43:00,
2013-01-14 03:44:00,16.2,13.2,29.35,ENE,72,0.0,0.0,88,0.00,,,0.00,VWS V14.01,2013-01-14 08:44:00,
2013-01-14 03:46:00,16.2,13.2,29.35,ENE,72,0.0,0.0,88,0.00,,,0.00,VWS V14.01,2013-01-14 08:46:00,
2013-01-14 03:47:00,16.2,13.2,29.35,ENE,72,0.0,0.0,88,0.00,,,0.00,VWS V14.01,2013-01-14 08:47:00,
2013-01-14 03:48:00,16.2,13.2,29.35,ENE,72,0.0,0.0,88,0.00,,,0.00,VWS V14.01,2013-01-14 08:48:00,
2013-01-14 03:49:00,16.3,13.7,29.35,ENE,72,0.0,0.0,89,0.00,,,0.00,VWS V14.01,2013-01-14 08:49:00,
2013-01-14 03:51:00,16.3,13.7,29.35,ENE,72,0.0,0.0,89,0.00,,,0.00,VWS V14.01,2013-01-14 08:51:00,
2013-01-14 03:52:00,16.3,13.7,29.35,ENE,72,0.0,0.0,89,0.00,,,0.00,VWS V14.01,2013-01-14 08:52:00,
2013-01-14 03:53:00,16.3,13.7,29.35,ENE,72,0.0,0.0,89,0.00,,,0.00,VWS V14.01,2013-01-14 08:53:00,
2013-01-14 03:54:00,16.3,13.7,29.35,ENE,72,0.0,0.0,89,0.00,,,0.00,VWS V14.01,2013-01-14 08:54:00,
2013-01-14 03:56:00,16.3,13.7,29.35,ENE,72,0.0,0.0,89,0.00,,,0.00,VWS V14.01,2013-01-14 08:56:00,
2013-01-14 03:57:00,16.3,13.7,29.35,ENE,72,0.0,0.0,89,0.00,,,0.00,VWS V14.01,2013-01-14 08:57:00,
2013-01-14 03:58:00,16.2,13.2,29.35,ENE,72,0.0,0.0,88,0.00,,,0.00,VWS V14.01,2013-01-14 08:58:00,
2013-01-14 04:00:00,16.0,12.8,29.35,ENE,72,0.0,0.0,87,0.00,,,0.00,VWS V14.01,2013-01-14 09:00:00,
2013-01-14 04:02:00,16.0,12.8,29.35,ENE,72,0.0,0.0,87,0.00,,,0.00,VWS V14.01,2013-01-14 09:02:00,
2013-01-14 04:03:00,16.0,12.8,29.35,ENE,72,0.0,0.0,87,0.00,,,0.00,VWS V14.01,2013-01-14 09:03:00,
2013-01-14 04:05:00,16.0,12.8,29.35,ENE,72,0.0,0.0,87,0.00,,,0.00,VWS V14.01,2013-01-14 09:05:00,
2013-01-14 04:07:00,16.0,12.8,29.38,ENE,72,0.0,0.0,87,0.00,,,0.00,VWS V14.01,2013-01-14 09:07:00,
2013-01-14 04:08:00,15.8,12.6,29.38,ENE,72,0.0,0.0,87,0.00,,,0.00,VWS V14.01,2013-01-14 09:08:00,
2013-01-14 04:10:00,15.8,12.6,29.38,ENE,72,0.0,0.0,87,0.00,,,0.00,VWS V14.01,2013-01-14 09:10:00,
2013-01-14 04:12:00,15.8,12.6,29.38,ENE,72,0.0,0.0,87,0.00,,,0.00,VWS V14.01,2013-01-14 09:12:00,
2013-01-14 04:13:00,15.8,12.6,29.38,ENE,72,0.0,0.0,87,0.00,,,0.00,VWS V14.01,2013-01-14 09:13:00,
2013-01-14 04:15:00,15.8,12.6,29.38,ENE,72,0.0,0.0,87,0.00,,,0.00,VWS V14.01,2013-01-14 09:15:00,
2013-01-14 04:17:00,15.8,12.6,29.38,ENE,72,0.0,0.0,87,0.00,,,0.00,VWS V14.01,2013-01-14 09:17:00,
2013-01-14 04:18:00,15.8,12.6,29.38,ENE,72,0.0,0.0,87,0.00,,,0.00,VWS V14.01,2013-01-14 09:18:00,
2013-01-14 04:20:00,15.8,12.6,29.38,ENE,72,0.0,0.0,87,0.00,,,0.00,VWS V14.01,2013-01-14 09:20:00,
2013-01-14 04:22:00,15.8,12.6,29.38,ENE,72,0.0,0.0,87,0.00,,,0.00,VWS V14.01,2013-01-14 09:22:00,
2013-01-14 04:23:00,15.8,13.1,29.38,ENE,72,0.0,0.0,89,0.00,,,0.43,VWS V14.01,2013-01-14 09:23:00,
2013-01-14 04:25:00,15.4,12.3,29.38,ENE,72,0.0,0.0,87,0.00,,,0.00,VWS V14.01,2013-01-14 09:25:00,
2013-01-14 04:27:00,15.4,12.3,29.38,ENE,72,0.0,0.0,87,0.00,,,0.00,VWS V14.01,2013-01-14 09:27:00,
2013-01-14 04:28:00,15.4,12.3,29.38,ENE,72,0.0,0.0,87,0.00,,,0.00,VWS V14.01,2013-01-14 09:28:00,
2013-01-14 04:30:00,15.6,12.7,29.38,ENE,72,0.0,0.0,88,0.00,,,0.00,VWS V14.01,2013-01-14 09:30:00,
2013-01-14 04:32:00,15.6,12.7,29.38,ENE,72,0.0,0.0,88,0.00,,,0.00,VWS V14.01,2013-01-14 09:32:00,
2013-01-14 04:33:00,15.6,12.7,29.38,ENE,72,0.0,0.0,88,0.00,,,0.00,VWS V14.01,2013-01-14 09:33:00,
2013-01-14 04:34:00,15.6,12.7,29.38,ENE,72,0.0,0.0,88,0.00,,,0.00,VWS V14.01,2013-01-14 09:34:00,
2013-01-14 04:36:00,15.6,12.7,29.38,ENE,72,0.0,0.0,88,0.00,,,0.00,VWS V14.01,2013-01-14 09:36:00,
2013-01-14 04:37:00,15.6,12.7,29.38,ENE,72,0.0,0.0,88,0.00,,,0.00,VWS V14.01,2013-01-14 09:37:00,
2013-01-14 04:38:00,15.6,12.7,29.38,ENE,72,0.0,0.0,88,0.00,,,0.00,VWS V14.01,2013-01-14 09:38:00,
2013-01-14 04:39:00,15.6,12.7,29.38,ENE,72,0.0,0.0,88,0.00,,,0.00,VWS V14.01,2013-01-14 09:39:00,
2013-01-14 04:41:00,15.6,13.0,29.38,ENE,72,0.0,0.0,89,0.00,,,0.00,VWS V14.01,2013-01-14 09:41:00,
2013-01-14 04:42:00,15.6,13.0,29.38,ENE,72,0.0,0.0,89,0.00,,,0.00,VWS V14.01,2013-01-14 09:42:00,
2013-01-14 04:43:00,15.6,13.0,29.38,ENE,72,0.0,0.0,89,0.00,,,0.00,VWS V14.01,2013-01-14 09:43:00,
2013-01-14 04:44:00,15.6,13.0,29.38,ENE,72,0.0,0.0,89,0.00,,,0.00,VWS V14.01,2013-01-14 09:44:00,
2013-01-14 04:46:00,15.6,13.0,29.38,ENE,72,0.0,0.0,89,0.00,,,0.00,VWS V14.01,2013-01-14 09:46:00,
2013-01-14 04:47:00,15.6,13.0,29.38,ENE,72,0.0,0.0,89,0.00,,,0.00,VWS V14.01,2013-01-14 09:47:00,
2013-01-14 04:48:00,15.6,13.0,29.38,ENE,72,0.0,0.0,89,0.00,,,0.00,VWS V14.01,2013-01-14 09:48:00,
2013-01-14 04:49:00,15.4,12.5,29.38,ENE,72,0.0,0.0,88,0.00,,,0.00,VWS V14.01,2013-01-14 09:49:00,
2013-01-14 04:51:00,15.6,12.7,29.38,ENE,72,0.0,0.0,88,0.00,,,0.00,VWS V14.01,2013-01-14 09:51:00,
2013-01-14 04:52:00,15.6,12.7,29.38,ENE,72,0.0,0.0,88,0.00,,,0.00,VWS V14.01,2013-01-14 09:52:00,
2013-01-14 04:53:00,15.6,12.7,29.38,ENE,72,0.0,0.0,88,0.00,,,0.00,VWS V14.01,2013-01-14 09:53:00,
2013-01-14 04:54:00,15.6,12.7,29.38,ENE,72,0.0,0.0,88,0.00,,,0.00,VWS V14.01,2013-01-14 09:54:00,
2013-01-14 04:56:00,15.6,13.0,29.38,ENE,72,0.0,0.0,89,0.00,,,0.00,VWS V14.01,2013-01-14 09:56:00,
2013-01-14 04:57:00,15.6,13.0,29.38,ENE,72,0.0,0.0,89,0.00,,,0.00,VWS V14.01,2013-01-14 09:57:00,
2013-01-14 04:58:00,15.6,13.0,29.38,ENE,72,0.0,0.0,89,0.00,,,0.00,VWS V14.01,2013-01-14 09:58:00,
2013-01-14 04:59:00,15.6,13.0,29.38,ENE,72,0.0,0.0,89,0.00,,,0.00,VWS V14.01,2013-01-14 09:59:00,
2013-01-14 05:02:00,15.6,13.0,29.38,ENE,72,0.0,0.0,89,0.00,,,0.00,VWS V14.01,2013-01-14 10:02:00,
2013-01-14 05:03:00,15.6,13.2,29.38,ENE,72,0.0,0.0,90,0.00,,,0.00,VWS V14.01,2013-01-14 10:03:00,
2013-01-14 05:04:00,15.6,13.2,29.38,ENE,72,0.0,0.0,90,0.00,,,0.00,VWS V14.01,2013-01-14 10:04:00,
2013-01-14 05:07:00,15.6,13.0,29.38,ENE,72,0.0,0.0,89,0.00,,,0.00,VWS V14.01,2013-01-14 10:07:00,
2013-01-14 05:08:00,15.6,13.0,29.38,ENE,72,0.0,0.0,89,0.00,,,0.00,VWS V14.01,2013-01-14 10:08:00,
2013-01-14 05:09:00,15.6,13.0,29.38,ENE,72,0.0,0.0,89,0.00,,,0.00,VWS V14.01,2013-01-14 10:09:00,
2013-01-14 05:12:00,15.8,13.4,29.38,ENE,72,0.0,0.0,90,0.00,,,0.00,VWS V14.01,2013-01-14 10:12:00,
2013-01-14 05:13:00,15.8,13.4,29.38,ENE,72,0.0,0.0,90,0.00,,,0.00,VWS V14.01,2013-01-14 10:13:00,
2013-01-14 05:14:00,15.8,13.4,29.38,ENE,72,0.0,0.0,90,0.00,,,0.00,VWS V14.01,2013-01-14 10:14:00,
2013-01-14 05:17:00,15.8,13.4,29.38,ENE,72,0.0,0.0,90,0.00,,,0.00,VWS V14.01,2013-01-14 10:17:00,
2013-01-14 05:18:00,15.8,13.4,29.38,ENE,72,0.0,0.0,90,0.00,,,0.00,VWS V14.01,2013-01-14 10:18:00,
2013-01-14 05:19:00,15.8,13.4,29.38,ENE,72,0.0,0.0,90,0.00,,,0.00,VWS V14.01,2013-01-14 10:19:00,
2013-01-14 05:22:00,15.8,13.4,29.38,ENE,72,0.0,0.0,90,0.00,,,0.00,VWS V14.01,2013-01-14 10:22:00,
2013-01-14 05:23:00,15.8,13.4,29.38,ENE,72,0.0,0.0,90,0.00,,,0.00,VWS V14.01,2013-01-14 10:23:00,
2013-01-14 05:25:00,15.8,13.4,29.38,ENE,72,0.0,0.0,90,0.00,,,0.00,VWS V14.01,2013-01-14 10:25:00,
2013-01-14 05:27:00,15.8,13.4,29.38,ENE,72,0.0,0.0,90,0.00,,,0.00,VWS V14.01,2013-01-14 10:27:00,
2013-01-14 05:28:00,15.8,13.4,29.38,ENE,72,0.0,0.0,90,0.00,,,0.00,VWS V14.01,2013-01-14 10:28:00,
2013-01-14 05:30:00,15.8,13.4,29.38,ENE,72,0.0,0.0,90,0.00,,,0.00,VWS V14.01,2013-01-14 10:30:00,
2013-01-14 05:32:00,15.6,13.0,29.38,ENE,72,0.0,0.0,89,0.00,,,0.00,VWS V14.01,2013-01-14 10:32:00,
2013-01-14 05:33:00,15.6,13.0,29.38,ENE,72,0.0,0.0,89,0.00,,,0.00,VWS V14.01,2013-01-14 10:33:00,
2013-01-14 05:34:00,15.6,13.0,29.38,ENE,72,0.0,0.0,89,0.00,,,0.00,VWS V14.01,2013-01-14 10:34:00,
2013-01-14 05:35:00,15.6,13.0,29.38,ENE,72,0.0,0.0,89,0.00,,,0.00,VWS V14.01,2013-01-14 10:35:00,
2013-01-14 05:37:00,15.6,13.0,29.38,ENE,72,0.0,0.0,89,0.00,,,0.00,VWS V14.01,2013-01-14 10:37:00,
2013-01-14 05:38:00,15.6,13.0,29.38,ENE,72,0.0,0.0,89,0.00,,,0.00,VWS V14.01,2013-01-14 10:38:00,
2013-01-14 05:39:00,15.6,13.0,29.38,ENE,72,0.0,0.0,89,0.00,,,0.00,VWS V14.01,2013-01-14 10:39:00,
2013-01-14 05:40:00,15.3,12.1,29.38,ENE,72,0.0,0.0,87,0.00,,,0.00,VWS V14.01,2013-01-14 10:40:00,
2013-01-14 05:42:00,15.4,12.3,29.38,ENE,72,0.0,0.0,87,0.00,,,0.00,VWS V14.01,2013-01-14 10:42:00,
2013-01-14 05:44:00,15.4,12.5,29.38,ENE,72,0.0,0.0,88,0.00,,,0.00,VWS V14.01,2013-01-14 10:44:00,
2013-01-14 05:46:00,15.4,12.5,29.38,ENE,72,0.0,0.0,88,0.00,,,0.00,VWS V14.01,2013-01-14 10:46:00,
2013-01-14 05:47:00,15.4,12.5,29.38,ENE,72,0.0,0.0,88,0.00,,,0.00,VWS V14.01,2013-01-14 10:47:00,
2013-01-14 05:49:00,15.4,12.5,29.38,ENE,72,0.0,0.0,88,0.00,,,0.00,VWS V14.01,2013-01-14 10:49:00,
2013-01-14 05:51:00,15.4,12.5,29.38,ENE,72,0.0,0.0,88,0.00,,,0.00,VWS V14.01,2013-01-14 10:51:00,
2013-01-14 05:53:00,15.4,12.5,29.38,ENE,72,0.0,0.0,88,0.00,,,0.00,VWS V14.01,2013-01-14 10:53:00,
2013-01-14 05:54:00,15.4,12.5,29.38,ENE,72,0.0,0.0,88,0.00,,,0.00,VWS V14.01,2013-01-14 10:54:00,
2013-01-14 05:56:00,15.4,12.5,29.38,ENE,72,0.0,0.0,88,0.00,,,0.00,VWS V14.01,2013-01-14 10:56:00,
2013-01-14 05:58:00,15.4,12.5,29.38,ENE,72,0.0,0.0,88,0.00,,,0.00,VWS V14.01,2013-01-14 10:58:00,
2013-01-14 05:59:00,15.3,12.4,29.38,ENE,72,0.0,0.0,88,0.00,,,0.00,VWS V14.01,2013-01-14 10:59:00,
2013-01-14 06:01:00,15.3,12.4,29.38,ENE,72,0.0,0.0,88,0.00,,,0.00,VWS V14.01,2013-01-14 11:01:00,
2013-01-14 06:03:00,15.3,12.4,29.38,ENE,72,0.0,0.0,88,0.00,,,0.00,VWS V14.01,2013-01-14 11:03:00,
2013-01-14 06:04:00,15.3,12.4,29.38,ENE,72,0.0,0.0,88,0.00,,,0.00,VWS V14.01,2013-01-14 11:04:00,
2013-01-14 06:06:00,15.1,11.9,29.38,ENE,72,0.0,0.0,87,0.00,,,0.00,VWS V14.01,2013-01-14 11:06:00,
2013-01-14 06:08:00,15.1,11.9,29.38,ENE,72,0.0,0.0,87,0.00,,,0.00,VWS V14.01,2013-01-14 11:08:00,
2013-01-14 06:09:00,15.1,12.2,29.38,ENE,72,0.0,0.0,88,0.00,,,0.00,VWS V14.01,2013-01-14 11:09:00,
2013-01-14 06:11:00,15.1,12.2,29.38,ENE,72,0.0,0.0,88,0.00,,,0.00,VWS V14.01,2013-01-14 11:11:00,
2013-01-14 06:13:00,15.1,12.2,29.38,ENE,72,0.0,0.0,88,0.00,,,0.00,VWS V14.01,2013-01-14 11:13:00,
2013-01-14 06:14:00,15.1,12.2,29.38,ENE,72,0.0,0.0,88,0.00,,,0.00,VWS V14.01,2013-01-14 11:14:00,
2013-01-14 06:16:00,15.1,12.2,29.38,ENE,72,0.0,0.0,88,0.00,,,0.00,VWS V14.01,2013-01-14 11:16:00,
2013-01-14 06:18:00,15.1,12.2,29.38,ENE,72,0.0,0.0,88,0.00,,,0.00,VWS V14.01,2013-01-14 11:18:00,
2013-01-14 06:19:00,15.1,12.2,29.38,ENE,72,0.0,0.0,88,0.00,,,0.00,VWS V14.01,2013-01-14 11:19:00,
2013-01-14 06:22:00,15.1,12.2,29.38,ENE,72,0.0,0.0,88,0.00,,,0.00,VWS V14.01,2013-01-14 11:22:00,
2013-01-14 06:23:00,15.1,12.2,29.38,ENE,72,0.0,0.0,88,0.00,,,0.00,VWS V14.01,2013-01-14 11:23:00,
2013-01-14 06:24:00,14.7,11.6,29.38,ENE,72,0.0,0.0,87,0.00,,,0.00,VWS V14.01,2013-01-14 11:24:00,
2013-01-14 06:27:00,14.7,11.6,29.38,ENE,72,0.0,0.0,87,0.00,,,0.00,VWS V14.01,2013-01-14 11:27:00,
2013-01-14 06:28:00,14.7,11.6,29.38,ENE,72,0.0,0.0,87,0.00,,,0.00,VWS V14.01,2013-01-14 11:28:00,
2013-01-14 06:29:00,14.7,11.6,29.38,ENE,72,0.0,0.0,87,0.00,,,0.00,VWS V14.01,2013-01-14 11:29:00,
2013-01-14 06:32:00,14.7,11.6,29.38,ENE,72,0.0,0.0,87,0.00,,,0.00,VWS V14.01,2013-01-14 11:32:00,
2013-01-14 06:33:00,14.5,11.4,29.38,ENE,72,0.0,0.0,87,0.00,,,0.00,VWS V14.01,2013-01-14 11:33:00,
2013-01-14 06:34:00,14.5,11.4,29.38,ENE,72,0.0,0.0,87,0.00,,,0.00,VWS V14.01,2013-01-14 11:34:00,
2013-01-14 06:37:00,14.5,11.4,29.41,ENE,72,0.0,0.0,87,0.00,,,0.00,VWS V14.01,2013-01-14 11:37:00,
2013-01-14 06:38:00,14.5,11.4,29.41,ENE,72,0.0,0.0,87,0.00,,,0.00,VWS V14.01,2013-01-14 11:38:00,
2013-01-14 06:39:00,14.5,11.4,29.41,ENE,72,0.0,0.0,87,0.00,,,0.00,VWS V14.01,2013-01-14 11:39:00,
2013-01-14 06:40:00,14.5,11.4,29.41,ENE,72,0.0,0.0,87,0.00,,,0.00,VWS V14.01,2013-01-14 11:40:00,
2013-01-14 06:42:00,14.5,11.4,29.41,ENE,72,0.0,0.0,87,0.00,,,0.00,VWS V14.01,2013-01-14 11:42:00,
2013-01-14 06:43:00,14.5,11.4,29.41,ENE,72,0.0,0.0,87,0.00,,,0.00,VWS V14.01,2013-01-14 11:43:00,
2013-01-14 06:44:00,14.5,11.4,29.41,ENE,72,0.0,0.0,87,0.00,,,0.00,VWS V14.01,2013-01-14 11:44:00,
2013-01-14 06:45:00,14.5,11.4,29.41,ENE,72,0.0,0.0,87,0.00,,,0.00,VWS V14.01,2013-01-14 11:45:00,
2013-01-14 06:48:00,14.5,11.4,29.41,ENE,72,0.0,0.0,87,0.00,,,0.00,VWS V14.01,2013-01-14 11:48:00,
2013-01-14 06:49:00,14.5,11.4,29.41,ENE,72,0.0,0.0,87,0.00,,,0.00,VWS V14.01,2013-01-14 11:49:00,
2013-01-14 06:50:00,14.5,11.4,29.41,ENE,72,0.0,0.0,87,0.00,,,0.00,VWS V14.01,2013-01-14 11:50:00,
2013-01-14 06:53:00,14.5,11.9,29.41,ENE,72,0.0,0.0,89,0.00,,,0.00,VWS V14.01,2013-01-14 11:53:00,
2013-01-14 06:54:00,14.5,11.9,29.41,ENE,72,0.0,0.0,89,0.00,,,0.00,VWS V14.01,2013-01-14 11:54:00,
2013-01-14 06:55:00,14.5,11.9,29.41,ENE,72,0.0,0.0,89,0.00,,,0.00,VWS V14.01,2013-01-14 11:55:00,
2013-01-14 06:58:00,14.5,11.9,29.41,ENE,72,0.0,0.0,89,0.00,,,0.00,VWS V14.01,2013-01-14 11:58:00,
2013-01-14 06:59:00,14.5,11.9,29.41,ENE,72,0.0,0.0,89,0.00,,,0.00,VWS V14.01,2013-01-14 11:59:00,
2013-01-14 07:00:00,14.5,11.9,29.41,ENE,72,0.0,0.0,89,0.00,,,0.00,VWS V14.01,2013-01-14 12:00:00,
2013-01-14 07:03:00,14.5,11.9,29.41,ENE,72,0.0,0.0,89,0.00,,,0.00,VWS V14.01,2013-01-14 12:03:00,
2013-01-14 07:04:00,14.5,11.9,29.41,ENE,72,0.0,0.0,89,0.00,,,0.00,VWS V14.01,2013-01-14 12:04:00,
2013-01-14 07:05:00,14.5,11.9,29.41,ENE,72,0.0,0.0,89,0.00,,,0.00,VWS V14.01,2013-01-14 12:05:00,
2013-01-14 07:08:00,14.4,11.7,29.41,ENE,72,0.0,0.0,89,0.00,,,0.00,VWS V14.01,2013-01-14 12:08:00,
2013-01-14 07:09:00,14.4,11.7,29.41,ENE,72,0.0,0.0,89,0.00,,,0.00,VWS V14.01,2013-01-14 12:09:00,
2013-01-14 07:10:00,14.4,11.7,29.41,ENE,72,0.0,0.0,89,0.00,,,0.00,VWS V14.01,2013-01-14 12:10:00,
2013-01-14 07:14:00,14.5,11.9,29.41,ENE,72,0.0,0.0,89,0.00,,,0.00,VWS V14.01,2013-01-14 12:14:00,
2013-01-14 07:15:00,14.5,11.9,29.41,ENE,72,0.0,0.0,89,0.00,,,0.00,VWS V14.01,2013-01-14 12:15:00,
2013-01-14 07:19:00,14.5,12.1,29.41,ENE,72,0.0,0.0,90,0.00,,,0.00,VWS V14.01,2013-01-14 12:19:00,
2013-01-14 07:20:00,14.5,12.1,29.41,ENE,72,0.0,0.0,90,0.00,,,0.00,VWS V14.01,2013-01-14 12:20:00,
2013-01-14 07:21:00,14.5,12.1,29.41,ENE,72,0.0,0.0,90,0.00,,,0.00,VWS V14.01,2013-01-14 12:21:00,
2013-01-14 07:24:00,14.5,12.1,29.41,ENE,72,0.0,0.0,90,0.00,,,0.00,VWS V14.01,2013-01-14 12:24:00,
2013-01-14 07:25:00,14.5,12.1,29.41,ENE,72,0.0,0.0,90,0.00,,,0.00,VWS V14.01,2013-01-14 12:25:00,
2013-01-14 07:26:00,14.5,12.1,29.41,ENE,72,0.0,0.0,90,0.00,,,0.00,VWS V14.01,2013-01-14 12:26:00,
2013-01-14 07:29:00,14.5,11.9,29.44,ENE,72,0.0,0.0,89,0.00,,,0.00,VWS V14.01,2013-01-14 12:29:00,
2013-01-14 07:30:00,14.5,11.9,29.44,ENE,72,0.0,0.0,89,0.00,,,0.00,VWS V14.01,2013-01-14 12:30:00,
2013-01-14 07:31:00,14.5,11.9,29.44,ENE,72,0.0,0.0,89,0.00,,,0.00,VWS V14.01,2013-01-14 12:31:00,
2013-01-14 07:34:00,14.5,12.1,29.44,ENE,72,0.0,0.0,90,0.00,,,0.00,VWS V14.01,2013-01-14 12:34:00,
2013-01-14 07:35:00,14.5,12.1,29.44,ENE,72,0.0,0.0,90,0.00,,,0.00,VWS V14.01,2013-01-14 12:35:00,
2013-01-14 07:36:00,14.5,12.1,29.44,ENE,72,0.0,0.0,90,0.00,,,0.00,VWS V14.01,2013-01-14 12:36:00,
2013-01-14 07:39:00,14.5,12.1,29.44,ENE,72,0.0,0.0,90,0.00,,,0.00,VWS V14.01,2013-01-14 12:39:00,
2013-01-14 07:40:00,14.5,12.1,29.44,ENE,72,0.0,0.0,90,0.00,,,0.00,VWS V14.01,2013-01-14 12:40:00,
2013-01-14 07:41:00,14.5,12.1,29.44,ENE,72,0.0,0.0,90,0.00,,,0.00,VWS V14.01,2013-01-14 12:41:00,
2013-01-14 07:44:00,14.5,12.1,29.44,ENE,72,0.0,0.0,90,0.00,,,0.00,VWS V14.01,2013-01-14 12:44:00,
2013-01-14 07:45:00,14.5,12.1,29.44,ENE,72,0.0,0.0,90,0.00,,,0.00,VWS V14.01,2013-01-14 12:45:00,
2013-01-14 07:46:00,14.5,12.1,29.44,ENE,72,0.0,0.0,90,0.00,,,0.00,VWS V14.01,2013-01-14 12:46:00,
2013-01-14 07:49:00,14.5,12.1,29.44,ENE,72,0.0,0.0,90,0.00,,,0.00,VWS V14.01,2013-01-14 12:49:00,
2013-01-14 07:50:00,14.5,12.1,29.44,ENE,72,0.0,0.0,90,0.00,,,0.00,VWS V14.01,2013-01-14 12:50:00,
2013-01-14 07:51:00,14.5,12.1,29.44,ENE,72,0.0,0.0,90,0.00,,,0.00,VWS V14.01,2013-01-14 12:51:00,
2013-01-14 07:54:00,14.5,12.1,29.44,ENE,72,0.0,0.0,90,0.00,,,0.00,VWS V14.01,2013-01-14 12:54:00,
2013-01-14 07:55:00,14.5,12.1,29.44,ENE,72,0.0,0.0,90,0.00,,,0.00,VWS V14.01,2013-01-14 12:55:00,
2013-01-14 07:56:00,14.5,12.1,29.44,ENE,72,0.0,0.0,90,0.00,,,0.00,VWS V14.01,2013-01-14 12:56:00,
2013-01-14 07:59:00,14.7,12.3,29.44,ENE,72,0.0,0.0,90,0.00,,,0.00,VWS V14.01,2013-01-14 12:59:00,
2013-01-14 08:00:00,14.7,12.3,29.44,ENE,72,0.0,0.0,90,0.00,,,0.00,VWS V14.01,2013-01-14 13:00:00,
2013-01-14 08:01:00,14.7,12.3,29.44,ENE,72,0.0,0.0,90,0.00,,,0.00,VWS V14.01,2013-01-14 13:01:00,
2013-01-14 08:02:00,14.7,12.3,29.44,ENE,72,0.0,0.0,90,0.00,,,0.00,VWS V14.01,2013-01-14 13:02:00,
2013-01-14 08:04:00,14.7,12.3,29.44,ENE,72,0.0,0.0,90,0.00,,,0.00,VWS V14.01,2013-01-14 13:04:00,
2013-01-14 08:05:00,14.7,12.3,29.44,ENE,72,0.0,0.0,90,0.00,,,0.00,VWS V14.01,2013-01-14 13:05:00,
2013-01-14 08:06:00,14.7,12.3,29.44,ENE,72,0.0,0.0,90,0.00,,,0.00,VWS V14.01,2013-01-14 13:06:00,
2013-01-14 08:07:00,14.7,12.3,29.44,ENE,72,0.0,0.0,90,0.00,,,0.00,VWS V14.01,2013-01-14 13:07:00,
2013-01-14 08:09:00,14.9,12.5,29.44,ENE,72,0.0,0.0,90,0.00,,,0.00,VWS V14.01,2013-01-14 13:09:00,
2013-01-14 08:10:00,14.9,12.5,29.44,ENE,72,0.0,0.0,90,0.00,,,0.00,VWS V14.01,2013-01-14 13:10:00,
2013-01-14 08:11:00,14.9,12.5,29.44,ENE,72,0.0,0.0,90,0.00,,,0.00,VWS V14.01,2013-01-14 13:11:00,
2013-01-14 08:12:00,14.9,12.5,29.44,ENE,72,0.0,0.0,90,0.00,,,0.00,VWS V14.01,2013-01-14 13:12:00,
2013-01-14 08:15:00,14.9,12.5,29.44,ENE,72,0.0,0.0,90,0.00,,,0.00,VWS V14.01,2013-01-14 13:15:00,
2013-01-14 08:16:00,15.1,12.7,29.44,ENE,72,0.0,0.0,90,0.00,,,0.00,VWS V14.01,2013-01-14 13:16:00,
2013-01-14 08:17:00,15.1,12.7,29.44,ENE,72,0.0,0.0,90,0.00,,,0.00,VWS V14.01,2013-01-14 13:17:00,
2013-01-14 08:20:00,15.1,12.7,29.44,ENE,72,0.0,0.0,90,0.00,,,0.00,VWS V14.01,2013-01-14 13:20:00,
2013-01-14 08:21:00,15.1,12.7,29.44,ENE,72,0.0,0.0,90,0.00,,,0.00,VWS V14.01,2013-01-14 13:21:00,
2013-01-14 08:22:00,15.1,12.7,29.44,ENE,72,0.0,0.0,90,0.00,,,0.00,VWS V14.01,2013-01-14 13:22:00,
2013-01-14 08:25:00,15.1,12.7,29.44,ENE,72,0.0,0.0,90,0.00,,,0.00,VWS V14.01,2013-01-14 13:25:00,
2013-01-14 08:26:00,15.1,12.7,29.44,ENE,72,0.0,0.0,90,0.00,,,0.00,VWS V14.01,2013-01-14 13:26:00,
2013-01-14 08:27:00,15.1,12.7,29.44,ENE,72,0.0,0.0,90,0.00,,,0.00,VWS V14.01,2013-01-14 13:27:00,
2013-01-14 08:30:00,15.1,12.7,29.44,ENE,72,0.0,0.0,90,0.00,,,0.00,VWS V14.01,2013-01-14 13:30:00,
2013-01-14 08:31:00,15.1,12.7,29.44,ENE,72,0.0,0.0,90,0.00,,,0.00,VWS V14.01,2013-01-14 13:31:00,
2013-01-14 08:32:00,15.1,12.7,29.44,ENE,72,0.0,0.0,90,0.00,,,0.00,VWS V14.01,2013-01-14 13:32:00,
2013-01-14 08:35:00,15.3,12.9,29.44,ENE,72,0.0,0.0,90,0.00,,,0.00,VWS V14.01,2013-01-14 13:35:00,
2013-01-14 08:36:00,15.3,12.9,29.44,ENE,72,0.0,0.0,90,0.00,,,0.00,VWS V14.01,2013-01-14 13:36:00,
2013-01-14 08:37:00,15.3,12.9,29.44,ENE,72,0.0,0.0,90,0.00,,,0.00,VWS V14.01,2013-01-14 13:37:00,
2013-01-14 08:40:00,15.3,12.9,29.44,ENE,72,0.0,0.0,90,0.00,,,0.00,VWS V14.01,2013-01-14 13:40:00,
2013-01-14 08:41:00,15.3,12.9,29.44,ENE,72,0.0,0.0,90,0.00,,,0.00,VWS V14.01,2013-01-14 13:41:00,
2013-01-14 08:42:00,15.4,13.0,29.47,ENE,72,0.0,0.0,90,0.00,,,0.00,VWS V14.01,2013-01-14 13:42:00,
2013-01-14 08:45:00,15.4,13.0,29.47,ENE,72,0.0,0.0,90,0.00,,,0.00,VWS V14.01,2013-01-14 13:45:00,
2013-01-14 08:46:00,15.4,13.0,29.47,ENE,72,0.0,0.0,90,0.00,,,0.00,VWS V14.01,2013-01-14 13:46:00,
2013-01-14 08:47:00,15.4,13.0,29.47,ENE,72,0.0,0.0,90,0.00,,,0.00,VWS V14.01,2013-01-14 13:47:00,
2013-01-14 08:50:00,15.6,13.2,29.47,ENE,72,0.0,0.0,90,0.00,,,0.00,VWS V14.01,2013-01-14 13:50:00,
2013-01-14 08:51:00,15.6,13.2,29.47,ENE,72,0.0,0.0,90,0.00,,,0.00,VWS V14.01,2013-01-14 13:51:00,
2013-01-14 08:52:00,15.8,13.4,29.47,ENE,72,0.0,0.0,90,0.00,,,0.00,VWS V14.01,2013-01-14 13:52:00,
2013-01-14 08:55:00,15.8,13.4,29.47,ENE,72,0.0,0.0,90,0.00,,,0.00,VWS V14.01,2013-01-14 13:55:00,
2013-01-14 08:56:00,15.8,13.4,29.47,ENE,72,0.0,0.0,90,0.00,,,0.00,VWS V14.01,2013-01-14 13:56:00,
2013-01-14 08:57:00,15.8,13.4,29.47,ENE,72,0.0,0.0,90,0.00,,,0.00,VWS V14.01,2013-01-14 13:57:00,
2013-01-14 09:00:00,15.8,13.4,29.47,ENE,72,0.0,0.0,90,0.00,,,0.00,VWS V14.01,2013-01-14 14:00:00,
2013-01-14 09:01:00,15.8,13.4,29.47,ENE,72,0.0,0.0,90,0.00,,,0.00,VWS V14.01,2013-01-14 14:01:00,
2013-01-14 09:02:00,15.8,13.4,29.47,ENE,72,0.0,0.0,90,0.00,,,0.00,VWS V14.01,2013-01-14 14:02:00,
2013-01-14 09:05:00,15.8,13.4,29.47,ENE,72,0.0,0.0,90,0.00,,,0.00,VWS V14.01,2013-01-14 14:05:00,
2013-01-14 09:06:00,15.8,13.4,29.47,ENE,72,0.0,0.0,90,0.00,,,0.00,VWS V14.01,2013-01-14 14:06:00,
2013-01-14 09:07:00,15.8,13.4,29.47,ENE,72,0.0,0.0,90,0.00,,,0.00,VWS V14.01,2013-01-14 14:07:00,
2013-01-14 09:10:00,15.8,13.4,29.47,ENE,72,0.0,0.0,90,0.00,,,0.00,VWS V14.01,2013-01-14 14:10:00,
2013-01-14 09:11:00,15.8,13.4,29.47,ENE,72,0.0,0.0,90,0.00,,,0.00,VWS V14.01,2013-01-14 14:11:00,
2013-01-14 09:13:00,16.0,13.6,29.47,ENE,72,0.0,0.0,90,0.00,,,0.00,VWS V14.01,2013-01-14 14:13:00,
2013-01-14 09:15:00,16.0,13.6,29.47,ENE,72,0.0,0.0,90,0.00,,,0.00,VWS V14.01,2013-01-14 14:15:00,
2013-01-14 09:16:00,16.0,13.6,29.47,ENE,72,0.0,0.0,90,0.00,,,0.00,VWS V14.01,2013-01-14 14:16:00,
2013-01-14 09:18:00,16.0,13.6,29.47,ENE,72,0.0,0.0,90,0.00,,,0.00,VWS V14.01,2013-01-14 14:18:00,
2013-01-14 09:20:00,16.2,13.8,29.47,ENE,72,0.0,0.0,90,0.00,,,0.00,VWS V14.01,2013-01-14 14:20:00,
2013-01-14 09:21:00,16.2,13.8,29.47,ENE,72,0.0,0.0,90,0.00,,,0.00,VWS V14.01,2013-01-14 14:21:00,
2013-01-14 09:22:00,16.2,13.8,29.47,ENE,72,0.0,0.0,90,0.00,,,0.00,VWS V14.01,2013-01-14 14:22:00,
2013-01-14 09:23:00,16.3,13.9,29.47,ENE,72,0.0,0.0,90,0.00,,,0.00,VWS V14.01,2013-01-14 14:23:00,
2013-01-14 09:25:00,16.3,13.9,29.47,ENE,72,0.0,0.0,90,0.00,,,0.00,VWS V14.01,2013-01-14 14:25:00,
2013-01-14 09:27:00,16.3,13.9,29.47,ENE,72,0.0,0.0,90,0.00,,,0.00,VWS V14.01,2013-01-14 14:27:00,
2013-01-14 09:28:00,16.3,13.9,29.47,ENE,72,0.0,0.0,90,0.00,,,0.00,VWS V14.01,2013-01-14 14:28:00,
2013-01-14 09:31:00,16.5,14.4,29.47,ENE,72,0.0,0.0,91,0.00,,,0.00,VWS V14.01,2013-01-14 14:31:00,
2013-01-14 09:32:00,16.5,14.4,29.47,ENE,72,0.0,0.0,91,0.00,,,0.00,VWS V14.01,2013-01-14 14:32:00,
2013-01-14 09:33:00,16.5,14.4,29.47,ENE,72,0.0,0.0,91,0.00,,,0.00,VWS V14.01,2013-01-14 14:33:00,
2013-01-14 09:36:00,16.7,14.3,29.47,ENE,72,0.0,0.0,90,0.00,,,0.00,VWS V14.01,2013-01-14 14:36:00,
2013-01-14 09:37:00,16.7,14.3,29.47,ENE,72,0.0,0.0,90,0.00,,,0.00,VWS V14.01,2013-01-14 14:37:00,
2013-01-14 09:38:00,16.7,14.3,29.47,ENE,72,0.0,0.0,90,0.00,,,0.00,VWS V14.01,2013-01-14 14:38:00,
2013-01-14 09:41:00,16.7,14.3,29.47,ENE,72,0.0,0.0,90,0.00,,,0.00,VWS V14.01,2013-01-14 14:41:00,
2013-01-14 09:42:00,16.7,14.3,29.47,ENE,72,0.0,0.0,90,0.00,,,0.00,VWS V14.01,2013-01-14 14:42:00,
2013-01-14 09:43:00,16.9,14.7,29.47,ENE,72,0.0,0.0,91,0.00,,,0.00,VWS V14.01,2013-01-14 14:43:00,
2013-01-14 09:46:00,17.1,14.9,29.47,ENE,72,0.0,0.0,91,0.00,,,0.00,VWS V14.01,2013-01-14 14:46:00,
2013-01-14 09:47:00,17.1,14.9,29.47,ENE,72,0.0,0.0,91,0.00,,,0.00,VWS V14.01,2013-01-14 14:47:00,
2013-01-14 09:48:00,17.1,14.9,29.47,ENE,72,0.0,0.0,91,0.00,,,0.00,VWS V14.01,2013-01-14 14:48:00,
2013-01-14 09:51:00,17.1,14.9,29.47,ENE,72,0.0,0.0,91,0.00,,,0.00,VWS V14.01,2013-01-14 14:51:00,
2013-01-14 09:52:00,17.1,14.9,29.47,ENE,72,0.0,0.0,91,0.00,,,0.00,VWS V14.01,2013-01-14 14:52:00,
2013-01-14 09:53:00,17.1,14.9,29.47,ENE,72,0.0,0.0,91,0.00,,,0.00,VWS V14.01,2013-01-14 14:53:00,
2013-01-14 09:56:00,17.1,14.9,29.47,ENE,72,0.0,0.0,91,0.00,,,0.00,VWS V14.01,2013-01-14 14:56:00,
2013-01-14 09:57:00,17.1,14.9,29.47,ENE,72,0.0,0.0,91,0.00,,,0.00,VWS V14.01,2013-01-14 14:57:00,
2013-01-14 09:58:00,17.1,14.9,29.47,ENE,72,0.0,0.0,91,0.00,,,0.00,VWS V14.01,2013-01-14 14:58:00,
2013-01-14 10:01:00,17.4,15.0,29.47,ENE,72,0.0,0.0,90,0.00,,,0.00,VWS V14.01,2013-01-14 15:01:00,
2013-01-14 10:02:00,17.4,15.0,29.47,ENE,72,0.0,0.0,90,0.00,,,0.00,VWS V14.01,2013-01-14 15:02:00,
2013-01-14 10:04:00,17.4,15.0,29.47,ENE,72,0.0,0.0,90,0.00,,,0.00,VWS V14.01,2013-01-14 15:04:00,
2013-01-14 10:06:00,17.6,15.2,29.47,ENE,72,0.0,0.0,90,0.00,,,0.00,VWS V14.01,2013-01-14 15:06:00,
2013-01-14 10:07:00,17.6,15.2,29.47,ENE,72,0.0,0.0,90,0.00,,,0.00,VWS V14.01,2013-01-14 15:07:00,
2013-01-14 10:09:00,17.8,15.4,29.47,ENE,72,0.0,0.0,90,0.00,,,0.00,VWS V14.01,2013-01-14 15:09:00,
2013-01-14 10:12:00,17.8,15.4,29.47,ENE,72,0.0,0.0,90,0.00,,,0.00,VWS V14.01,2013-01-14 15:12:00,
2013-01-14 10:13:00,17.8,15.4,29.47,ENE,72,0.0,0.0,90,0.00,,,0.00,VWS V14.01,2013-01-14 15:13:00,
2013-01-14 10:14:00,17.8,15.4,29.47,ENE,72,0.0,0.0,90,0.00,,,0.00,VWS V14.01,2013-01-14 15:14:00,
2013-01-14 10:17:00,17.8,15.4,29.47,ENE,72,0.0,0.0,90,0.00,,,0.00,VWS V14.01,2013-01-14 15:17:00,
2013-01-14 10:18:00,17.8,15.4,29.47,ENE,72,0.0,0.0,90,0.00,,,0.00,VWS V14.01,2013-01-14 15:18:00,
2013-01-14 10:19:00,17.8,15.4,29.47,ENE,72,0.0,0.0,90,0.00,,,0.00,VWS V14.01,2013-01-14 15:19:00,
2013-01-14 10:22:00,18.1,15.7,29.44,ENE,72,0.0,0.0,90,0.00,,,0.00,VWS V14.01,2013-01-14 15:22:00,
2013-01-14 10:23:00,18.1,15.7,29.44,ENE,72,0.0,0.0,90,0.00,,,0.00,VWS V14.01,2013-01-14 15:23:00,
2013-01-14 10:24:00,18.1,15.7,29.44,ENE,72,0.0,0.0,90,0.00,,,0.00,VWS V14.01,2013-01-14 15:24:00,
2013-01-14 10:27:00,18.1,15.4,29.44,ENE,72,0.0,0.0,89,0.00,,,0.00,VWS V14.01,2013-01-14 15:27:00,
2013-01-14 10:28:00,18.1,15.4,29.44,ENE,72,0.0,0.0,89,0.00,,,0.00,VWS V14.01,2013-01-14 15:28:00,
2013-01-14 10:29:00,18.1,15.4,29.44,ENE,72,0.0,0.0,89,0.00,,,0.00,VWS V14.01,2013-01-14 15:29:00,
2013-01-14 10:32:00,18.1,15.4,29.44,ENE,72,0.0,0.0,89,0.00,,,0.00,VWS V14.01,2013-01-14 15:32:00,
2013-01-14 10:33:00,18.1,15.4,29.44,ENE,72,0.0,0.0,89,0.00,,,0.00,VWS V14.01,2013-01-14 15:33:00,
2013-01-14 10:34:00,18.1,15.4,29.44,ENE,72,0.0,0.0,89,0.00,,,0.00,VWS V14.01,2013-01-14 15:34:00,
2013-01-14 10:37:00,18.3,15.6,29.47,ENE,72,0.0,0.0,89,0.00,,,0.00,VWS V14.01,2013-01-14 15:37:00,
2013-01-14 10:38:00,18.5,15.8,29.47,ENE,72,0.0,0.0,89,0.00,,,0.00,VWS V14.01,2013-01-14 15:38:00,
2013-01-14 10:39:00,18.5,15.8,29.47,ENE,72,0.0,0.0,89,0.00,,,0.00,VWS V14.01,2013-01-14 15:39:00,
2013-01-14 10:42:00,18.5,15.8,29.47,ENE,72,0.0,0.0,89,0.00,,,0.00,VWS V14.01,2013-01-14 15:42:00,
2013-01-14 10:43:00,18.7,16.2,29.47,ENE,72,0.0,0.0,90,0.00,,,0.00,VWS V14.01,2013-01-14 15:43:00,
2013-01-14 10:44:00,18.7,16.2,29.47,ENE,72,0.0,0.0,90,0.00,,,0.00,VWS V14.01,2013-01-14 15:44:00,
2013-01-14 10:47:00,19.0,16.6,29.47,ENE,72,0.0,0.0,90,0.00,,,0.00,VWS V14.01,2013-01-14 15:47:00,
2013-01-14 10:48:00,19.0,16.6,29.47,ENE,72,0.0,0.0,90,0.00,,,0.00,VWS V14.01,2013-01-14 15:48:00,
2013-01-14 10:49:00,19.0,16.6,29.47,ENE,72,0.0,0.0,90,0.00,,,0.00,VWS V14.01,2013-01-14 15:49:00,
2013-01-14 10:52:00,19.0,16.3,29.44,ENE,72,0.0,0.0,89,0.00,,,0.00,VWS V14.01,2013-01-14 15:52:00,
2013-01-14 10:53:00,19.0,16.3,29.44,ENE,72,0.0,0.0,89,0.00,,,0.00,VWS V14.01,2013-01-14 15:53:00,
2013-01-14 10:54:00,19.0,16.3,29.44,ENE,72,0.0,0.0,89,0.00,,,0.00,VWS V14.01,2013-01-14 15:54:00,
2013-01-14 10:55:00,19.0,16.3,29.44,ENE,72,0.0,0.0,89,0.00,,,0.00,VWS V14.01,2013-01-14 15:55:00,
2013-01-14 10:57:00,19.0,16.3,29.44,ENE,72,0.0,0.0,89,0.00,,,0.00,VWS V14.01,2013-01-14 15:57:00,
2013-01-14 10:58:00,19.0,16.3,29.44,ENE,72,0.0,0.0,89,0.00,,,0.00,VWS V14.01,2013-01-14 15:58:00,
2013-01-14 10:59:00,19.0,16.3,29.44,ENE,72,0.0,0.0,89,0.00,,,0.00,VWS V14.01,2013-01-14 15:59:00,
2013-01-14 11:00:00,19.0,16.3,29.44,ENE,72,0.0,0.0,89,0.00,,,0.00,VWS V14.01,2013-01-14 16:00:00,
2013-01-14 11:02:00,19.4,16.7,29.44,ENE,72,0.0,0.0,89,0.00,,,0.00,VWS V14.01,2013-01-14 16:02:00,
2013-01-14 11:04:00,19.4,16.7,29.44,ENE,72,0.0,0.0,89,0.00,,,0.00,VWS V14.01,2013-01-14 16:04:00,
2013-01-14 11:05:00,19.4,16.7,29.44,ENE,72,0.0,0.0,89,0.00,,,0.00,VWS V14.01,2013-01-14 16:05:00,
2013-01-14 11:07:00,19.4,16.4,29.44,ENE,72,0.0,0.0,88,0.00,,,0.00,VWS V14.01,2013-01-14 16:07:00,
2013-01-14 11:09:00,19.4,16.4,29.44,ENE,72,0.0,0.0,88,0.00,,,0.00,VWS V14.01,2013-01-14 16:09:00,
2013-01-14 11:10:00,19.6,16.6,29.44,ENE,72,0.0,0.0,88,0.00,,,0.00,VWS V14.01,2013-01-14 16:10:00,
2013-01-14 11:12:00,19.6,16.6,29.44,ENE,72,0.0,0.0,88,0.00,,,0.00,VWS V14.01,2013-01-14 16:12:00,
2013-01-14 11:14:00,19.6,16.6,29.44,ENE,72,0.0,0.0,88,0.00,,,0.00,VWS V14.01,2013-01-14 16:14:00,
2013-01-14 11:15:00,19.6,16.6,29.44,ENE,72,0.0,0.0,88,0.00,,,0.00,VWS V14.01,2013-01-14 16:15:00,
2013-01-14 11:18:00,19.6,16.4,29.44,ENE,72,0.0,0.0,87,0.00,,,0.00,VWS V14.01,2013-01-14 16:18:00,
2013-01-14 11:19:00,19.6,16.4,29.44,ENE,72,0.0,0.0,87,0.00,,,0.00,VWS V14.01,2013-01-14 16:19:00,
2013-01-14 11:20:00,19.6,16.4,29.44,ENE,72,0.0,0.0,87,0.00,,,0.00,VWS V14.01,2013-01-14 16:20:00,
2013-01-14 11:23:00,19.6,16.4,29.44,ENE,72,0.0,0.0,87,0.00,,,0.00,VWS V14.01,2013-01-14 16:23:00,
2013-01-14 11:24:00,19.6,16.4,29.44,ENE,72,0.0,0.0,87,0.00,,,0.00,VWS V14.01,2013-01-14 16:24:00,
2013-01-14 11:25:00,19.6,16.4,29.44,ENE,72,0.0,0.0,87,0.00,,,0.00,VWS V14.01,2013-01-14 16:25:00,
2013-01-14 11:28:00,19.9,16.7,29.44,ENE,72,0.0,0.0,87,0.00,,,0.00,VWS V14.01,2013-01-14 16:28:00,
2013-01-14 11:29:00,19.9,16.7,29.44,ENE,72,0.0,0.0,87,0.00,,,0.00,VWS V14.01,2013-01-14 16:29:00,
2013-01-14 11:30:00,19.9,16.7,29.44,ENE,72,0.0,0.0,87,0.00,,,0.00,VWS V14.01,2013-01-14 16:30:00,
2013-01-14 11:33:00,19.9,16.4,29.44,ENE,72,0.0,0.0,86,0.00,,,0.00,VWS V14.01,2013-01-14 16:33:00,
2013-01-14 11:34:00,19.9,16.4,29.44,ENE,72,0.0,0.0,86,0.00,,,0.00,VWS V14.01,2013-01-14 16:34:00,
2013-01-14 11:36:00,19.9,16.4,29.44,ENE,72,0.0,0.0,86,0.00,,,0.00,VWS V14.01,2013-01-14 16:36:00,
2013-01-14 11:38:00,19.9,16.4,29.44,ENE,72,0.0,0.0,86,0.00,,,0.00,VWS V14.01,2013-01-14 16:38:00,
2013-01-14 11:39:00,19.9,16.4,29.44,ENE,72,0.0,0.0,86,0.00,,,0.00,VWS V14.01,2013-01-14 16:39:00,
2013-01-14 11:41:00,19.9,16.4,29.44,ENE,72,0.0,0.0,86,0.00,,,0.00,VWS V14.01,2013-01-14 16:41:00,
2013-01-14 11:43:00,19.9,16.4,29.44,ENE,72,0.0,0.0,86,0.00,,,0.00,VWS V14.01,2013-01-14 16:43:00,
2013-01-14 11:44:00,19.9,16.2,29.44,ENE,72,0.0,0.0,85,0.00,,,0.00,VWS V14.01,2013-01-14 16:44:00,
2013-01-14 11:46:00,19.9,16.2,29.44,ENE,72,0.0,0.0,85,0.00,,,0.00,VWS V14.01,2013-01-14 16:46:00,
2013-01-14 11:48:00,19.9,16.2,29.44,ENE,72,0.0,0.0,85,0.00,,,0.00,VWS V14.01,2013-01-14 16:48:00,
2013-01-14 11:49:00,20.3,16.8,29.44,ENE,72,0.0,0.0,86,0.00,,,0.00,VWS V14.01,2013-01-14 16:49:00,
2013-01-14 11:50:00,20.3,16.8,29.44,ENE,72,0.0,0.0,86,0.00,,,0.00,VWS V14.01,2013-01-14 16:50:00,
2013-01-14 11:51:00,20.3,16.8,29.44,ENE,72,0.0,0.0,86,0.00,,,0.00,VWS V14.01,2013-01-14 16:51:00,
2013-01-14 11:53:00,20.3,16.8,29.44,ENE,72,0.0,0.0,86,0.00,,,0.00,VWS V14.01,2013-01-14 16:53:00,
2013-01-14 11:54:00,20.3,16.5,29.44,ENE,72,0.0,0.0,85,0.00,,,0.00,VWS V14.01,2013-01-14 16:54:00,
2013-01-14 11:55:00,20.3,16.5,29.44,ENE,72,0.0,0.0,85,0.00,,,0.00,VWS V14.01,2013-01-14 16:55:00,
2013-01-14 11:56:00,20.3,16.5,29.44,ENE,72,0.0,0.0,85,0.00,,,0.00,VWS V14.01,2013-01-14 16:56:00,
2013-01-14 11:58:00,20.5,16.7,29.44,ENE,72,0.0,0.0,85,0.00,,,0.00,VWS V14.01,2013-01-14 16:58:00,
2013-01-14 12:00:00,20.5,16.7,29.44,ENE,72,0.0,0.0,85,0.00,,,0.00,VWS V14.01,2013-01-14 17:00:00,
2013-01-14 12:01:00,20.5,16.7,29.44,ENE,72,0.0,0.0,85,0.00,,,0.00,VWS V14.01,2013-01-14 17:01:00,
2013-01-14 12:03:00,20.5,16.7,29.44,ENE,72,0.0,0.0,85,0.00,,,0.00,VWS V14.01,2013-01-14 17:03:00,
2013-01-14 12:05:00,20.5,16.7,29.44,ENE,72,0.0,0.0,85,0.00,,,0.00,VWS V14.01,2013-01-14 17:05:00,
2013-01-14 12:06:00,20.5,16.7,29.44,ENE,72,0.0,0.0,85,0.00,,,0.00,VWS V14.01,2013-01-14 17:06:00,
2013-01-14 12:08:00,20.5,16.7,29.44,ENE,72,0.0,0.0,85,0.00,,,0.00,VWS V14.01,2013-01-14 17:08:00,
2013-01-14 12:10:00,20.5,16.7,29.44,ENE,72,0.0,0.0,85,0.00,,,0.00,VWS V14.01,2013-01-14 17:10:00,
2013-01-14 12:11:00,20.5,16.7,29.44,ENE,72,0.0,0.0,85,0.00,,,0.00,VWS V14.01,2013-01-14 17:11:00,
2013-01-14 12:13:00,20.5,16.7,29.44,ENE,72,0.0,0.0,85,0.00,,,0.00,VWS V14.01,2013-01-14 17:13:00,
2013-01-14 12:15:00,20.5,16.7,29.44,ENE,72,0.0,0.0,85,0.00,,,0.00,VWS V14.01,2013-01-14 17:15:00,
2013-01-14 12:16:00,20.5,16.7,29.44,ENE,72,0.0,0.0,85,0.00,,,0.00,VWS V14.01,2013-01-14 17:16:00,
2013-01-14 12:18:00,21.0,17.0,29.44,ENE,72,0.0,0.0,84,0.00,,,0.00,VWS V14.01,2013-01-14 17:18:00,
2013-01-14 12:20:00,21.0,17.0,29.44,ENE,72,0.0,0.0,84,0.00,,,0.00,VWS V14.01,2013-01-14 17:20:00,
2013-01-14 12:21:00,21.0,17.0,29.44,ENE,72,0.0,0.0,84,0.00,,,0.00,VWS V14.01,2013-01-14 17:21:00,
2013-01-14 12:23:00,21.0,17.0,29.44,ENE,72,0.0,0.0,84,0.00,,,0.00,VWS V14.01,2013-01-14 17:23:00,
2013-01-14 12:25:00,21.0,17.0,29.44,ENE,72,0.0,0.0,84,0.00,,,0.00,VWS V14.01,2013-01-14 17:25:00,
2013-01-14 12:26:00,21.0,17.0,29.44,ENE,72,0.0,0.0,84,0.00,,,0.00,VWS V14.01,2013-01-14 17:26:00,
2013-01-14 12:28:00,21.0,17.0,29.44,ENE,72,0.0,0.0,84,0.00,,,0.00,VWS V14.01,2013-01-14 17:28:00,
2013-01-14 12:30:00,21.0,17.0,29.44,ENE,72,0.0,0.0,84,0.00,,,0.00,VWS V14.01,2013-01-14 17:30:00,
2013-01-14 12:31:00,21.0,17.0,29.44,ENE,72,0.0,0.0,84,0.00,,,0.00,VWS V14.01,2013-01-14 17:31:00,
2013-01-14 12:34:00,21.0,17.0,29.44,ENE,72,0.0,0.0,84,0.00,,,0.00,VWS V14.01,2013-01-14 17:34:00,
2013-01-14 12:36:00,21.0,17.0,29.44,ENE,72,0.0,0.0,84,0.00,,,0.00,VWS V14.01,2013-01-14 17:36:00,
2013-01-14 12:39:00,21.0,17.0,29.41,ENE,72,0.0,0.0,84,0.00,,,0.00,VWS V14.01,2013-01-14 17:39:00,
2013-01-14 12:41:00,21.0,17.0,29.41,ENE,72,0.0,0.0,84,0.00,,,0.00,VWS V14.01,2013-01-14 17:41:00,
2013-01-14 12:42:00,21.0,17.0,29.41,ENE,72,0.0,0.0,84,0.00,,,0.00,VWS V14.01,2013-01-14 17:42:00,
2013-01-14 12:44:00,21.2,16.9,29.41,ENE,72,0.0,0.0,83,0.00,,,0.00,VWS V14.01,2013-01-14 17:44:00,
2013-01-14 12:46:00,21.2,16.9,29.41,ENE,72,0.0,0.0,83,0.00,,,0.00,VWS V14.01,2013-01-14 17:46:00,
2013-01-14 12:47:00,21.2,16.9,29.41,ENE,72,0.0,0.0,83,0.00,,,0.00,VWS V14.01,2013-01-14 17:47:00,
2013-01-14 12:49:00,21.2,16.9,29.44,ENE,72,0.0,0.0,83,0.00,,,0.00,VWS V14.01,2013-01-14 17:49:00,
2013-01-14 12:51:00,21.2,16.9,29.44,ENE,72,0.0,0.0,83,0.00,,,0.00,VWS V14.01,2013-01-14 17:51:00,
2013-01-14 12:52:00,21.2,16.9,29.44,ENE,72,0.0,0.0,83,0.00,,,0.00,VWS V14.01,2013-01-14 17:52:00,
2013-01-14 12:54:00,21.2,16.9,29.44,ENE,72,0.0,0.0,83,0.00,,,0.00,VWS V14.01,2013-01-14 17:54:00,
2013-01-14 12:56:00,21.2,16.9,29.44,ENE,72,0.0,0.0,83,0.00,,,0.00,VWS V14.01,2013-01-14 17:56:00,
2013-01-14 12:57:00,21.2,16.9,29.44,ENE,72,0.0,0.0,83,0.00,,,0.00,VWS V14.01,2013-01-14 17:57:00,
2013-01-14 12:59:00,21.2,16.9,29.44,ENE,72,0.0,0.0,83,0.00,,,0.00,VWS V14.01,2013-01-14 17:59:00,
2013-01-14 13:01:00,21.2,16.9,29.44,ENE,72,0.0,0.0,83,0.00,,,0.00,VWS V14.01,2013-01-14 18:01:00,
2013-01-14 13:02:00,21.2,16.9,29.44,ENE,72,0.0,0.0,83,0.00,,,0.00,VWS V14.01,2013-01-14 18:02:00,
2013-01-14 13:05:00,21.2,16.9,29.47,ENE,72,0.0,0.0,83,0.00,,,0.43,VWS V14.01,2013-01-14 18:05:00,
2013-01-14 13:06:00,21.2,16.9,29.47,ENE,72,0.0,0.0,83,0.00,,,0.00,VWS V14.01,2013-01-14 18:06:00,
2013-01-14 13:07:00,21.2,16.9,29.47,ENE,72,0.0,0.0,83,0.00,,,0.00,VWS V14.01,2013-01-14 18:07:00,
2013-01-14 13:08:00,21.2,16.9,29.47,ENE,72,0.0,0.0,83,0.00,,,0.00,VWS V14.01,2013-01-14 18:08:00,
2013-01-14 13:10:00,21.2,16.9,29.47,ENE,72,0.0,0.0,83,0.00,,,0.00,VWS V14.01,2013-01-14 18:10:00,
2013-01-14 13:11:00,21.2,16.9,29.47,ENE,72,0.0,0.0,83,0.00,,,0.00,VWS V14.01,2013-01-14 18:11:00,
2013-01-14 13:12:00,21.2,16.9,29.47,ENE,72,0.0,0.0,83,0.00,,,0.00,VWS V14.01,2013-01-14 18:12:00,
2013-01-14 13:13:00,21.2,16.9,29.47,ENE,72,0.0,0.0,83,0.00,,,0.00,VWS V14.01,2013-01-14 18:13:00,
2013-01-14 13:15:00,21.2,16.9,29.47,ENE,72,0.0,0.0,83,0.00,,,0.00,VWS V14.01,2013-01-14 18:15:00,
2013-01-14 13:16:00,21.2,16.9,29.47,ENE,72,0.0,0.0,83,0.00,,,0.00,VWS V14.01,2013-01-14 18:16:00,
2013-01-14 13:17:00,21.2,16.9,29.47,ENE,72,0.0,0.0,83,0.00,,,0.00,VWS V14.01,2013-01-14 18:17:00,
2013-01-14 13:18:00,21.2,16.9,29.47,ENE,72,0.0,0.0,83,0.00,,,0.00,VWS V14.01,2013-01-14 18:18:00,
2013-01-14 13:20:00,21.2,16.9,29.47,ENE,72,0.0,0.0,83,0.00,,,0.00,VWS V14.01,2013-01-14 18:20:00,
2013-01-14 13:21:00,21.2,16.9,29.47,ENE,72,0.0,0.0,83,0.00,,,0.00,VWS V14.01,2013-01-14 18:21:00,
2013-01-14 13:22:00,21.2,16.9,29.47,ENE,72,0.0,0.0,83,0.00,,,0.00,VWS V14.01,2013-01-14 18:22:00,
2013-01-14 13:23:00,21.4,17.0,29.47,ENE,72,0.0,0.0,83,0.00,,,0.43,VWS V14.01,2013-01-14 18:23:00,
2013-01-14 13:25:00,21.4,17.0,29.47,ENE,72,0.0,0.0,83,0.00,,,0.00,VWS V14.01,2013-01-14 18:25:00,
2013-01-14 13:26:00,21.4,17.0,29.47,ENE,72,0.0,0.0,83,0.00,,,0.00,VWS V14.01,2013-01-14 18:26:00,
2013-01-14 13:27:00,21.2,16.9,29.47,ENE,72,0.0,0.0,83,0.00,,,0.00,VWS V14.01,2013-01-14 18:27:00,
2013-01-14 13:28:00,21.2,16.9,29.47,ENE,72,0.0,0.0,83,0.00,,,0.00,VWS V14.01,2013-01-14 18:28:00,
2013-01-14 13:30:00,21.2,16.9,29.47,ENE,72,0.0,0.0,83,0.00,,,0.00,VWS V14.01,2013-01-14 18:30:00,
2013-01-14 13:31:00,21.4,17.0,29.47,ENE,72,0.0,0.0,83,0.00,,,0.00,VWS V14.01,2013-01-14 18:31:00,
2013-01-14 13:32:00,21.4,17.0,29.47,ENE,72,0.0,0.0,83,0.00,,,0.00,VWS V14.01,2013-01-14 18:32:00,
2013-01-14 13:33:00,21.4,17.0,29.47,ENE,72,0.0,0.0,83,0.00,,,0.00,VWS V14.01,2013-01-14 18:33:00,
2013-01-14 13:35:00,21.4,17.0,29.44,ENE,72,0.0,0.0,83,0.00,,,0.00,VWS V14.01,2013-01-14 18:35:00,
2013-01-14 13:36:00,21.4,17.0,29.44,ENE,72,0.0,0.0,83,0.00,,,0.00,VWS V14.01,2013-01-14 18:36:00,
2013-01-14 13:38:00,21.4,17.0,29.44,ENE,72,0.0,0.0,83,0.00,,,0.00,VWS V14.01,2013-01-14 18:38:00,
2013-01-14 13:40:00,21.4,17.0,29.44,ENE,72,0.0,0.0,83,0.00,,,0.00,VWS V14.01,2013-01-14 18:40:00,
2013-01-14 13:41:00,21.4,17.0,29.44,ENE,72,0.0,0.0,83,0.00,,,0.00,VWS V14.01,2013-01-14 18:41:00,
2013-01-14 13:43:00,21.4,17.0,29.44,ENE,72,0.0,0.0,83,0.00,,,0.00,VWS V14.01,2013-01-14 18:43:00,
2013-01-14 13:45:00,21.6,17.2,29.44,ENE,72,0.0,0.0,83,0.00,,,0.00,VWS V14.01,2013-01-14 18:45:00,
2013-01-14 13:47:00,21.6,17.2,29.44,ENE,72,0.0,0.0,83,0.00,,,0.00,VWS V14.01,2013-01-14 18:47:00,
2013-01-14 13:48:00,21.6,17.2,29.44,ENE,72,0.0,0.0,83,0.00,,,0.00,VWS V14.01,2013-01-14 18:48:00,
2013-01-14 13:50:00,21.6,17.2,29.44,ENE,72,0.0,0.0,83,0.00,,,0.00,VWS V14.01,2013-01-14 18:50:00,
2013-01-14 13:52:00,21.6,17.2,29.47,ENE,72,0.0,0.0,83,0.00,,,0.00,VWS V14.01,2013-01-14 18:52:00,
2013-01-14 13:53:00,21.6,17.2,29.47,ENE,72,0.0,0.0,83,0.00,,,0.00,VWS V14.01,2013-01-14 18:53:00,
2013-01-14 13:55:00,21.6,17.2,29.47,ENE,72,0.0,0.0,83,0.00,,,0.00,VWS V14.01,2013-01-14 18:55:00,
2013-01-14 13:57:00,21.6,17.2,29.47,ENE,72,0.0,0.0,83,0.00,,,0.00,VWS V14.01,2013-01-14 18:57:00,
2013-01-14 13:58:00,21.6,17.2,29.47,ENE,72,0.0,0.0,83,0.00,,,0.00,VWS V14.01,2013-01-14 18:58:00,
2013-01-14 14:01:00,21.7,17.4,29.47,ENE,72,0.0,0.0,83,0.00,,,0.00,VWS V14.01,2013-01-14 19:01:00,
2013-01-14 14:02:00,21.7,17.4,29.47,ENE,72,0.0,0.0,83,0.00,,,0.00,VWS V14.01,2013-01-14 19:02:00,
2013-01-14 14:03:00,21.6,17.2,29.47,ENE,72,0.0,0.0,83,0.00,,,0.00,VWS V14.01,2013-01-14 19:03:00,
2013-01-14 14:06:00,21.6,17.2,29.44,ENE,72,0.0,0.0,83,0.00,,,0.00,VWS V14.01,2013-01-14 19:06:00,
2013-01-14 14:07:00,21.6,17.2,29.44,ENE,72,0.0,0.0,83,0.00,,,0.00,VWS V14.01,2013-01-14 19:07:00,
2013-01-14 14:08:00,21.6,17.2,29.44,ENE,72,0.0,0.0,83,0.00,,,0.00,VWS V14.01,2013-01-14 19:08:00,
2013-01-14 14:11:00,21.7,17.4,29.44,ENE,72,0.0,0.0,83,0.00,,,0.00,VWS V14.01,2013-01-14 19:11:00,
2013-01-14 14:12:00,21.7,17.4,29.44,ENE,72,0.0,0.0,83,0.00,,,0.00,VWS V14.01,2013-01-14 19:12:00,
2013-01-14 14:13:00,21.7,17.4,29.44,ENE,72,0.0,0.0,83,0.00,,,0.00,VWS V14.01,2013-01-14 19:13:00,
2013-01-14 14:16:00,21.7,17.4,29.44,ENE,72,0.0,0.0,83,0.00,,,0.00,VWS V14.01,2013-01-14 19:16:00,
2013-01-14 14:17:00,21.7,17.4,29.44,ENE,72,0.0,0.0,83,0.00,,,0.00,VWS V14.01,2013-01-14 19:17:00,
2013-01-14 14:19:00,21.7,17.4,29.44,ENE,72,0.0,0.0,83,0.00,,,0.00,VWS V14.01,2013-01-14 19:19:00,
2013-01-14 14:21:00,21.7,17.1,29.44,ENE,72,0.0,0.0,82,0.00,,,0.00,VWS V14.01,2013-01-14 19:21:00,
2013-01-14 14:22:00,21.7,17.1,29.44,ENE,72,0.0,0.0,82,0.00,,,0.00,VWS V14.01,2013-01-14 19:22:00,
2013-01-14 14:24:00,21.7,17.1,29.44,ENE,72,0.0,0.0,82,0.00,,,0.00,VWS V14.01,2013-01-14 19:24:00,
2013-01-14 14:26:00,21.7,17.1,29.44,ENE,72,0.0,0.0,82,0.00,,,0.00,VWS V14.01,2013-01-14 19:26:00,
2013-01-14 14:27:00,21.7,17.1,29.44,ENE,72,0.0,0.0,82,0.00,,,0.00,VWS V14.01,2013-01-14 19:27:00,
2013-01-14 14:29:00,21.7,17.1,29.44,ENE,72,0.0,0.0,82,0.00,,,0.00,VWS V14.01,2013-01-14 19:29:00,
2013-01-14 14:31:00,21.9,17.3,29.44,ENE,72,0.0,0.0,82,0.00,,,0.00,VWS V14.01,2013-01-14 19:31:00,
2013-01-14 14:32:00,21.9,17.3,29.44,ENE,72,0.0,0.0,82,0.00,,,0.00,VWS V14.01,2013-01-14 19:32:00,
2013-01-14 14:34:00,21.9,17.3,29.44,ENE,72,0.0,0.0,82,0.00,,,0.00,VWS V14.01,2013-01-14 19:34:00,
2013-01-14 14:36:00,21.9,17.3,29.44,ENE,72,0.0,0.0,82,0.00,,,0.00,VWS V14.01,2013-01-14 19:36:00,
2013-01-14 14:37:00,21.9,17.3,29.44,ENE,72,0.0,0.0,82,0.00,,,0.00,VWS V14.01,2013-01-14 19:37:00,
2013-01-14 14:39:00,21.9,17.3,29.47,ENE,72,0.0,0.0,82,0.00,,,0.00,VWS V14.01,2013-01-14 19:39:00,
2013-01-14 14:41:00,21.9,17.3,29.47,ENE,72,0.0,0.0,82,0.00,,,0.00,VWS V14.01,2013-01-14 19:41:00,
2013-01-14 14:42:00,21.9,17.3,29.47,ENE,72,0.0,0.0,82,0.00,,,0.00,VWS V14.01,2013-01-14 19:42:00,
2013-01-14 14:44:00,21.9,17.3,29.47,ENE,72,0.0,0.0,82,0.00,,,0.00,VWS V14.01,2013-01-14 19:44:00,
2013-01-14 14:46:00,21.9,17.6,29.47,ENE,72,0.0,0.0,83,0.00,,,0.00,VWS V14.01,2013-01-14 19:46:00,
2013-01-14 14:47:00,21.9,17.6,29.47,ENE,72,0.0,0.0,83,0.00,,,0.00,VWS V14.01,2013-01-14 19:47:00,
2013-01-14 14:49:00,21.9,17.6,29.47,ENE,72,0.0,0.0,83,0.00,,,0.00,VWS V14.01,2013-01-14 19:49:00,
2013-01-14 14:51:00,21.9,17.6,29.47,ENE,72,0.0,0.0,83,0.00,,,0.00,VWS V14.01,2013-01-14 19:51:00,
2013-01-14 14:52:00,21.9,17.6,29.47,ENE,72,0.0,0.0,83,0.00,,,0.00,VWS V14.01,2013-01-14 19:52:00,
2013-01-14 14:54:00,21.9,17.6,29.47,ENE,72,0.0,0.0,83,0.00,,,0.00,VWS V14.01,2013-01-14 19:54:00,
2013-01-14 14:57:00,21.9,17.6,29.47,ENE,72,0.0,0.0,83,0.00,,,0.00,VWS V14.01,2013-01-14 19:57:00,
2013-01-14 14:59:00,21.9,17.6,29.47,ENE,72,0.0,0.0,83,0.00,,,0.00,VWS V14.01,2013-01-14 19:59:00,
2013-01-14 15:02:00,21.7,17.4,29.47,ENE,72,0.0,0.0,83,0.00,,,0.00,VWS V14.01,2013-01-14 20:02:00,
2013-01-14 15:04:00,21.7,17.4,29.47,ENE,72,0.0,0.0,83,0.00,,,0.00,VWS V14.01,2013-01-14 20:04:00,
2013-01-14 15:07:00,21.7,17.4,29.47,ENE,72,0.0,0.0,83,0.00,,,0.00,VWS V14.01,2013-01-14 20:07:00,
2013-01-14 15:09:00,21.9,17.6,29.47,ENE,72,0.0,0.0,83,0.00,,,0.00,VWS V14.01,2013-01-14 20:09:00,
2013-01-14 15:10:00,21.9,17.6,29.47,ENE,72,0.0,0.0,83,0.00,,,0.00,VWS V14.01,2013-01-14 20:10:00,
2013-01-14 15:12:00,21.9,17.6,29.47,ENE,72,0.0,0.0,83,0.00,,,0.00,VWS V14.01,2013-01-14 20:12:00,
2013-01-14 15:15:00,21.9,17.6,29.47,ENE,72,0.0,0.0,83,0.00,,,0.00,VWS V14.01,2013-01-14 20:15:00,
2013-01-14 15:17:00,21.9,17.6,29.47,ENE,72,0.0,0.0,83,0.00,,,0.00,VWS V14.01,2013-01-14 20:17:00,
2013-01-14 15:20:00,21.9,17.6,29.47,ENE,72,0.0,0.0,83,0.00,,,0.00,VWS V14.01,2013-01-14 20:20:00,
2013-01-14 15:22:00,21.9,17.6,29.47,ENE,72,0.0,0.0,83,0.00,,,0.00,VWS V14.01,2013-01-14 20:22:00,
2013-01-14 15:25:00,21.9,17.6,29.47,ENE,72,0.0,0.0,83,0.00,,,0.00,VWS V14.01,2013-01-14 20:25:00,
2013-01-14 15:27:00,21.9,17.6,29.47,ENE,72,0.0,0.0,83,0.00,,,0.00,VWS V14.01,2013-01-14 20:27:00,
2013-01-14 15:28:00,21.9,17.6,29.47,ENE,72,0.0,0.0,83,0.00,,,0.00,VWS V14.01,2013-01-14 20:28:00,
2013-01-14 15:30:00,21.9,17.6,29.47,ENE,72,0.0,0.0,83,0.00,,,0.00,VWS V14.01,2013-01-14 20:30:00,
2013-01-14 15:32:00,21.9,17.6,29.47,ENE,72,0.0,0.0,83,0.00,,,0.00,VWS V14.01,2013-01-14 20:32:00,
2013-01-14 15:33:00,21.9,17.6,29.47,ENE,72,0.0,0.0,83,0.00,,,0.00,VWS V14.01,2013-01-14 20:33:00,
2013-01-14 15:35:00,21.9,17.6,29.50,ENE,72,0.0,0.0,83,0.00,,,0.00,VWS V14.01,2013-01-14 20:35:00,
2013-01-14 15:37:00,21.9,17.6,29.50,ENE,72,0.0,0.0,83,0.00,,,0.00,VWS V14.01,2013-01-14 20:37:00,
2013-01-14 15:38:00,21.9,17.6,29.50,ENE,72,0.0,0.0,83,0.00,,,0.00,VWS V14.01,2013-01-14 20:38:00,
2013-01-14 15:40:00,21.9,17.6,29.50,ENE,72,0.0,0.0,83,0.00,,,0.00,VWS V14.01,2013-01-14 20:40:00,
2013-01-14 15:41:00,21.9,17.6,29.50,ENE,72,0.0,0.0,83,0.00,,,0.00,VWS V14.01,2013-01-14 20:41:00,
2013-01-14 15:42:00,21.9,17.6,29.50,ENE,72,0.0,0.0,83,0.00,,,0.00,VWS V14.01,2013-01-14 20:42:00,
2013-01-14 15:43:00,21.9,17.6,29.50,ENE,72,0.0,0.0,83,0.00,,,0.00,VWS V14.01,2013-01-14 20:43:00,
2013-01-14 15:46:00,22.1,17.7,29.50,ENE,72,0.0,0.0,83,0.00,,,0.00,VWS V14.01,2013-01-14 20:46:00,
2013-01-14 15:47:00,22.1,17.7,29.50,ENE,72,0.0,0.0,83,0.00,,,0.00,VWS V14.01,2013-01-14 20:47:00,
2013-01-14 15:48:00,22.1,17.7,29.50,ENE,72,0.0,0.0,83,0.00,,,0.00,VWS V14.01,2013-01-14 20:48:00,
2013-01-14 15:51:00,22.1,17.7,29.47,ENE,72,0.0,0.0,83,0.00,,,0.00,VWS V14.01,2013-01-14 20:51:00,
2013-01-14 15:52:00,22.1,17.7,29.47,ENE,72,0.0,0.0,83,0.00,,,0.00,VWS V14.01,2013-01-14 20:52:00,
2013-01-14 15:53:00,22.1,17.7,29.47,ENE,72,0.0,0.0,83,0.00,,,0.00,VWS V14.01,2013-01-14 20:53:00,
2013-01-14 15:56:00,22.1,17.7,29.47,ENE,72,0.0,0.0,83,0.00,,,0.00,VWS V14.01,2013-01-14 20:56:00,
2013-01-14 15:57:00,22.1,17.7,29.47,ENE,72,0.0,0.0,83,0.00,,,0.00,VWS V14.01,2013-01-14 20:57:00,
2013-01-14 15:58:00,22.1,17.7,29.47,ENE,72,0.0,0.0,83,0.00,,,0.00,VWS V14.01,2013-01-14 20:58:00,
2013-01-14 16:01:00,22.1,18.0,29.47,ENE,72,0.0,0.0,84,0.00,,,0.00,VWS V14.01,2013-01-14 21:01:00,
2013-01-14 16:02:00,22.1,18.0,29.47,ENE,72,0.0,0.0,84,0.00,,,0.00,VWS V14.01,2013-01-14 21:02:00,
2013-01-14 16:03:00,22.1,18.0,29.47,ENE,72,0.0,0.0,84,0.00,,,0.00,VWS V14.01,2013-01-14 21:03:00,
2013-01-14 16:06:00,22.1,18.0,29.47,ENE,72,0.0,0.0,84,0.00,,,0.00,VWS V14.01,2013-01-14 21:06:00,
2013-01-14 16:07:00,22.1,18.0,29.50,ENE,72,0.0,0.0,84,0.00,,,0.00,VWS V14.01,2013-01-14 21:07:00,
2013-01-14 16:08:00,22.1,17.7,29.50,ENE,72,0.0,0.0,83,0.00,,,0.00,VWS V14.01,2013-01-14 21:08:00,
2013-01-14 16:11:00,22.1,17.7,29.50,ENE,72,0.0,0.0,83,0.00,,,0.00,VWS V14.01,2013-01-14 21:11:00,
2013-01-14 16:12:00,22.1,17.7,29.50,ENE,72,0.0,0.0,83,0.00,,,0.00,VWS V14.01,2013-01-14 21:12:00,
2013-01-14 16:13:00,22.3,18.2,29.50,ENE,72,0.0,0.0,84,0.00,,,0.00,VWS V14.01,2013-01-14 21:13:00,
2013-01-14 16:16:00,22.3,18.2,29.50,ENE,72,0.0,0.0,84,0.00,,,0.00,VWS V14.01,2013-01-14 21:16:00,
2013-01-14 16:17:00,22.3,18.2,29.50,ENE,72,0.0,0.0,84,0.00,,,0.00,VWS V14.01,2013-01-14 21:17:00,
2013-01-14 16:18:00,22.3,18.2,29.50,ENE,72,0.0,0.0,84,0.00,,,0.00,VWS V14.01,2013-01-14 21:18:00,
2013-01-14 16:21:00,22.3,18.2,29.50,ENE,72,0.0,0.0,84,0.00,,,0.00,VWS V14.01,2013-01-14 21:21:00,
2013-01-14 16:22:00,22.3,18.2,29.50,ENE,72,0.0,0.0,84,0.00,,,0.00,VWS V14.01,2013-01-14 21:22:00,
2013-01-14 16:23:00,22.3,18.2,29.50,ENE,72,0.0,0.0,84,0.00,,,0.00,VWS V14.01,2013-01-14 21:23:00,
2013-01-14 16:26:00,22.3,18.2,29.50,ENE,72,0.0,0.0,84,0.00,,,0.00,VWS V14.01,2013-01-14 21:26:00,
2013-01-14 16:28:00,22.3,18.2,29.50,ENE,72,0.0,0.0,84,0.00,,,0.00,VWS V14.01,2013-01-14 21:28:00,
2013-01-14 16:29:00,22.3,18.2,29.50,ENE,72,0.0,0.0,84,0.00,,,0.00,VWS V14.01,2013-01-14 21:29:00,
2013-01-14 16:31:00,22.3,18.2,29.50,ENE,72,0.0,0.0,84,0.00,,,0.00,VWS V14.01,2013-01-14 21:31:00,
2013-01-14 16:32:00,22.3,18.2,29.50,ENE,72,0.0,0.0,84,0.00,,,0.00,VWS V14.01,2013-01-14 21:32:00,
2013-01-14 16:33:00,22.3,18.2,29.50,ENE,72,0.0,0.0,84,0.00,,,0.00,VWS V14.01,2013-01-14 21:33:00,
2013-01-14 16:34:00,22.3,18.2,29.50,ENE,72,0.0,0.0,84,0.00,,,0.00,VWS V14.01,2013-01-14 21:34:00,
2013-01-14 16:36:00,22.1,18.0,29.50,ENE,72,0.0,0.0,84,0.00,,,0.00,VWS V14.01,2013-01-14 21:36:00,
2013-01-14 16:37:00,22.1,18.0,29.50,ENE,72,0.0,0.0,84,0.00,,,0.00,VWS V14.01,2013-01-14 21:37:00,
2013-01-14 16:38:00,22.3,18.2,29.50,ENE,72,0.0,0.0,84,0.00,,,0.00,VWS V14.01,2013-01-14 21:38:00,
2013-01-14 16:39:00,22.3,18.2,29.50,ENE,72,0.0,0.0,84,0.00,,,0.00,VWS V14.01,2013-01-14 21:39:00,
2013-01-14 16:41:00,22.3,18.2,29.50,ENE,72,0.0,0.0,84,0.00,,,0.00,VWS V14.01,2013-01-14 21:41:00,
2013-01-14 16:42:00,22.3,18.2,29.50,ENE,72,0.0,0.0,84,0.00,,,0.00,VWS V14.01,2013-01-14 21:42:00,
2013-01-14 16:43:00,22.3,18.2,29.50,ENE,72,0.0,0.0,84,0.00,,,0.00,VWS V14.01,2013-01-14 21:43:00,
2013-01-14 16:44:00,22.3,18.2,29.50,ENE,72,0.0,0.0,84,0.00,,,0.00,VWS V14.01,2013-01-14 21:44:00,
2013-01-14 16:47:00,22.3,18.2,29.50,ENE,72,0.0,0.0,84,0.00,,,0.00,VWS V14.01,2013-01-14 21:47:00,
2013-01-14 16:48:00,22.3,18.2,29.50,ENE,72,0.0,0.0,84,0.00,,,0.00,VWS V14.01,2013-01-14 21:48:00,
2013-01-14 16:49:00,22.3,18.2,29.50,ENE,72,0.0,0.0,84,0.00,,,0.00,VWS V14.01,2013-01-14 21:49:00,
2013-01-14 16:52:00,22.3,18.2,29.50,ENE,72,0.0,0.0,84,0.00,,,0.00,VWS V14.01,2013-01-14 21:52:00,
2013-01-14 16:53:00,22.3,18.2,29.50,ENE,72,0.0,0.0,84,0.00,,,0.00,VWS V14.01,2013-01-14 21:53:00,
2013-01-14 16:54:00,22.1,18.0,29.50,ENE,72,0.0,0.0,84,0.00,,,0.00,VWS V14.01,2013-01-14 21:54:00,
2013-01-14 16:57:00,22.1,18.0,29.50,ENE,72,0.0,0.0,84,0.00,,,0.00,VWS V14.01,2013-01-14 21:57:00,
2013-01-14 16:58:00,22.1,18.0,29.50,ENE,72,0.0,0.0,84,0.00,,,0.00,VWS V14.01,2013-01-14 21:58:00,
2013-01-14 17:00:00,22.1,18.0,29.50,ENE,72,0.0,0.0,84,0.00,,,0.00,VWS V14.01,2013-01-14 22:00:00,
2013-01-14 17:02:00,22.3,18.2,29.50,ENE,72,0.0,0.0,84,0.00,,,0.00,VWS V14.01,2013-01-14 22:02:00,
2013-01-14 17:03:00,22.3,18.2,29.50,ENE,72,0.0,0.0,84,0.00,,,0.00,VWS V14.01,2013-01-14 22:03:00,
2013-01-14 17:05:00,22.3,18.2,29.50,ENE,72,0.0,0.0,84,0.00,,,0.00,VWS V14.01,2013-01-14 22:05:00,
2013-01-14 17:07:00,22.3,18.2,29.50,ENE,72,0.0,0.0,84,0.00,,,0.00,VWS V14.01,2013-01-14 22:07:00,
2013-01-14 17:08:00,22.3,18.2,29.50,ENE,72,0.0,0.0,84,0.00,,,0.00,VWS V14.01,2013-01-14 22:08:00,
2013-01-14 17:10:00,22.3,18.2,29.50,ENE,72,0.0,0.0,84,0.00,,,0.00,VWS V14.01,2013-01-14 22:10:00,
2013-01-14 17:12:00,22.3,18.2,29.50,ENE,72,0.0,0.0,84,0.00,,,0.00,VWS V14.01,2013-01-14 22:12:00,
2013-01-14 17:13:00,22.3,18.2,29.50,ENE,72,0.0,0.0,84,0.00,,,0.00,VWS V14.01,2013-01-14 22:13:00,
2013-01-14 17:15:00,22.1,18.0,29.50,ENE,72,0.0,0.0,84,0.00,,,0.00,VWS V14.01,2013-01-14 22:15:00,
2013-01-14 17:17:00,22.1,18.0,29.50,ENE,72,0.0,0.0,84,0.00,,,0.00,VWS V14.01,2013-01-14 22:17:00,
2013-01-14 17:18:00,22.1,18.0,29.50,ENE,72,0.0,0.0,84,0.00,,,0.00,VWS V14.01,2013-01-14 22:18:00,
2013-01-14 17:20:00,22.1,18.0,29.50,ENE,72,0.0,0.0,84,0.00,,,0.00,VWS V14.01,2013-01-14 22:20:00,
2013-01-14 17:22:00,22.1,18.0,29.50,ENE,72,0.0,0.0,84,0.00,,,0.00,VWS V14.01,2013-01-14 22:22:00,
2013-01-14 17:23:00,22.1,18.0,29.50,ENE,72,0.0,0.0,84,0.00,,,0.00,VWS V14.01,2013-01-14 22:23:00,
2013-01-14 17:25:00,22.1,18.0,29.50,ENE,72,0.0,0.0,84,0.00,,,0.00,VWS V14.01,2013-01-14 22:25:00,
2013-01-14 17:27:00,22.1,18.0,29.50,ENE,72,0.0,0.0,84,0.00,,,0.00,VWS V14.01,2013-01-14 22:27:00,
2013-01-14 17:28:00,22.1,18.0,29.50,ENE,72,0.0,0.0,84,0.00,,,0.00,VWS V14.01,2013-01-14 22:28:00,
2013-01-14 17:31:00,22.1,18.0,29.50,ENE,72,0.0,0.0,84,0.00,,,0.00,VWS V14.01,2013-01-14 22:31:00,
2013-01-14 17:32:00,22.1,18.0,29.50,ENE,72,0.0,0.0,84,0.00,,,0.00,VWS V14.01,2013-01-14 22:32:00,
2013-01-14 17:33:00,22.1,18.0,29.50,ENE,72,0.0,0.0,84,0.00,,,0.00,VWS V14.01,2013-01-14 22:33:00,
2013-01-14 17:36:00,22.1,18.0,29.50,ENE,72,0.0,0.0,84,0.00,,,0.00,VWS V14.01,2013-01-14 22:36:00,
2013-01-14 17:37:00,22.1,18.0,29.50,ENE,72,0.0,0.0,84,0.00,,,0.00,VWS V14.01,2013-01-14 22:37:00,
2013-01-14 17:38:00,22.1,18.0,29.50,ENE,72,0.0,0.0,84,0.00,,,0.00,VWS V14.01,2013-01-14 22:38:00,
2013-01-14 17:41:00,22.1,18.0,29.50,ENE,72,0.0,0.0,84,0.00,,,0.00,VWS V14.01,2013-01-14 22:41:00,
2013-01-14 17:42:00,22.1,18.0,29.50,ENE,72,0.0,0.0,84,0.00,,,0.00,VWS V14.01,2013-01-14 22:42:00,
2013-01-14 17:43:00,22.1,18.0,29.50,ENE,72,0.0,0.0,84,0.00,,,0.00,VWS V14.01,2013-01-14 22:43:00,
2013-01-14 17:46:00,21.9,17.8,29.50,ENE,72,0.0,0.0,84,0.00,,,0.00,VWS V14.01,2013-01-14 22:46:00,
2013-01-14 17:47:00,21.9,17.8,29.50,ENE,72,0.0,0.0,84,0.00,,,0.00,VWS V14.01,2013-01-14 22:47:00,
2013-01-14 17:48:00,21.9,17.8,29.50,ENE,72,0.0,0.0,84,0.00,,,0.00,VWS V14.01,2013-01-14 22:48:00,
2013-01-14 17:49:00,21.9,17.8,29.50,ENE,72,0.0,0.0,84,0.00,,,0.00,VWS V14.01,2013-01-14 22:49:00,
2013-01-14 17:51:00,21.9,17.8,29.50,ENE,72,0.0,0.0,84,0.00,,,0.00,VWS V14.01,2013-01-14 22:51:00,
2013-01-14 17:52:00,21.9,17.8,29.50,ENE,72,0.0,0.0,84,0.00,,,0.00,VWS V14.01,2013-01-14 22:52:00,
2013-01-14 17:53:00,21.9,17.8,29.50,ENE,72,0.0,0.0,84,0.00,,,0.00,VWS V14.01,2013-01-14 22:53:00,
2013-01-14 17:54:00,21.9,17.8,29.50,ENE,72,0.0,0.0,84,0.00,,,0.00,VWS V14.01,2013-01-14 22:54:00,
2013-01-14 17:56:00,21.9,17.8,29.50,ENE,72,0.0,0.0,84,0.00,,,0.00,VWS V14.01,2013-01-14 22:56:00,
2013-01-14 17:57:00,21.9,17.8,29.50,ENE,72,0.0,0.0,84,0.00,,,0.00,VWS V14.01,2013-01-14 22:57:00,
2013-01-14 17:58:00,21.9,17.8,29.50,ENE,72,0.0,0.0,84,0.00,,,0.00,VWS V14.01,2013-01-14 22:58:00,
2013-01-14 17:59:00,21.9,17.8,29.50,ENE,72,0.0,0.0,84,0.00,,,0.00,VWS V14.01,2013-01-14 22:59:00,
2013-01-14 18:01:00,21.9,17.8,29.50,ENE,72,0.0,0.0,84,0.00,,,0.00,VWS V14.01,2013-01-14 23:01:00,
2013-01-14 18:02:00,21.9,17.8,29.50,ENE,72,0.0,0.0,84,0.00,,,0.00,VWS V14.01,2013-01-14 23:02:00,
2013-01-14 18:03:00,21.9,17.8,29.50,ENE,72,0.0,0.0,84,0.00,,,0.00,VWS V14.01,2013-01-14 23:03:00,
2013-01-14 18:04:00,21.9,17.8,29.50,ENE,72,0.0,0.0,84,0.00,,,0.00,VWS V14.01,2013-01-14 23:04:00,
2013-01-14 18:06:00,21.9,17.8,29.50,ENE,72,0.0,0.0,84,0.00,,,0.00,VWS V14.01,2013-01-14 23:06:00,
2013-01-14 18:07:00,21.9,17.8,29.50,ENE,72,0.0,0.0,84,0.00,,,0.00,VWS V14.01,2013-01-14 23:07:00,
2013-01-14 18:08:00,21.9,17.8,29.50,ENE,72,0.0,0.0,84,0.00,,,0.00,VWS V14.01,2013-01-14 23:08:00,
2013-01-14 18:09:00,21.9,17.8,29.50,ENE,72,0.0,0.0,84,0.00,,,0.00,VWS V14.01,2013-01-14 23:09:00,
2013-01-14 18:11:00,21.9,17.8,29.50,ENE,72,0.0,0.0,84,0.00,,,0.00,VWS V14.01,2013-01-14 23:11:00,
2013-01-14 18:12:00,21.9,17.8,29.50,ENE,72,0.0,0.0,84,0.00,,,0.00,VWS V14.01,2013-01-14 23:12:00,
2013-01-14 18:13:00,21.9,17.8,29.50,ENE,72,0.0,0.0,84,0.00,,,0.00,VWS V14.01,2013-01-14 23:13:00,
2013-01-14 18:15:00,21.9,17.8,29.50,ENE,72,0.0,0.0,84,0.00,,,0.00,VWS V14.01,2013-01-14 23:15:00,
2013-01-14 18:16:00,21.9,17.8,29.50,ENE,72,0.0,0.0,84,0.00,,,0.00,VWS V14.01,2013-01-14 23:16:00,
2013-01-14 18:17:00,21.9,17.8,29.50,ENE,72,0.0,0.0,84,0.00,,,0.00,VWS V14.01,2013-01-14 23:17:00,
2013-01-14 18:18:00,21.9,17.8,29.50,ENE,72,0.0,0.0,84,0.00,,,0.00,VWS V14.01,2013-01-14 23:18:00,
2013-01-14 18:20:00,21.7,17.9,29.50,ENE,72,0.0,0.0,85,0.00,,,0.00,VWS V14.01,2013-01-14 23:20:00,
2013-01-14 18:21:00,21.7,17.9,29.50,ENE,72,0.0,0.0,85,0.00,,,0.00,VWS V14.01,2013-01-14 23:21:00,
2013-01-14 18:22:00,21.7,17.9,29.50,ENE,72,0.0,0.0,85,0.00,,,0.00,VWS V14.01,2013-01-14 23:22:00,
2013-01-14 18:23:00,21.7,17.9,29.50,ENE,72,0.0,0.0,85,0.00,,,0.00,VWS V14.01,2013-01-14 23:23:00,
2013-01-14 18:25:00,21.7,17.9,29.50,ENE,72,0.0,0.0,85,0.00,,,0.00,VWS V14.01,2013-01-14 23:25:00,
2013-01-14 18:26:00,21.7,17.9,29.50,ENE,72,0.0,0.0,85,0.00,,,0.00,VWS V14.01,2013-01-14 23:26:00,
2013-01-14 18:27:00,21.7,17.9,29.50,ENE,72,0.0,0.0,85,0.00,,,0.00,VWS V14.01,2013-01-14 23:27:00,
2013-01-14 18:28:00,21.7,17.9,29.50,ENE,72,0.0,0.0,85,0.00,,,0.00,VWS V14.01,2013-01-14 23:28:00,
2013-01-14 18:30:00,21.7,17.9,29.50,ENE,72,0.0,0.0,85,0.00,,,0.00,VWS V14.01,2013-01-14 23:30:00,
2013-01-14 18:31:00,21.7,17.9,29.50,ENE,72,0.0,0.0,85,0.00,,,0.00,VWS V14.01,2013-01-14 23:31:00,
2013-01-14 18:33:00,21.7,17.9,29.50,ENE,72,0.0,0.0,85,0.00,,,0.00,VWS V14.01,2013-01-14 23:33:00,
2013-01-14 18:35:00,21.6,17.8,29.50,ENE,72,0.0,0.0,85,0.00,,,0.00,VWS V14.01,2013-01-14 23:35:00,
2013-01-14 18:36:00,21.6,17.8,29.50,ENE,72,0.0,0.0,85,0.00,,,0.00,VWS V14.01,2013-01-14 23:36:00,
2013-01-14 18:38:00,21.6,17.8,29.47,ENE,72,0.0,0.0,85,0.00,,,0.00,VWS V14.01,2013-01-14 23:38:00,
2013-01-14 18:40:00,21.6,17.8,29.47,ENE,72,0.0,0.0,85,0.00,,,0.00,VWS V14.01,2013-01-14 23:40:00,
2013-01-14 18:41:00,21.6,17.8,29.47,ENE,72,0.0,0.0,85,0.00,,,0.00,VWS V14.01,2013-01-14 23:41:00,
2013-01-14 18:43:00,21.6,17.8,29.47,ENE,72,0.0,0.0,85,0.00,,,0.00,VWS V14.01,2013-01-14 23:43:00,
2013-01-14 18:45:00,21.6,18.0,29.47,ENE,72,0.0,0.0,86,0.00,,,0.00,VWS V14.01,2013-01-14 23:45:00,
2013-01-14 18:47:00,21.6,18.0,29.47,ENE,72,0.0,0.0,86,0.00,,,0.00,VWS V14.01,2013-01-14 23:47:00,
2013-01-14 18:48:00,21.6,18.0,29.47,ENE,72,0.0,0.0,86,0.00,,,0.00,VWS V14.01,2013-01-14 23:48:00,
2013-01-14 18:50:00,21.6,18.0,29.47,ENE,72,0.0,0.0,86,0.00,,,0.00,VWS V14.01,2013-01-14 23:50:00,
2013-01-14 18:52:00,21.6,18.0,29.47,ENE,72,0.0,0.0,86,0.00,,,0.00,VWS V14.01,2013-01-14 23:52:00,
2013-01-14 18:53:00,21.6,18.0,29.47,ENE,72,0.0,0.0,86,0.00,,,0.00,VWS V14.01,2013-01-14 23:53:00,
2013-01-14 18:54:00,21.6,18.0,29.47,ENE,72,0.0,0.0,86,0.00,,,0.00,VWS V14.01,2013-01-14 23:54:00,
2013-01-14 18:56:00,21.6,18.0,29.47,ENE,72,0.0,0.0,86,0.00,,,0.00,VWS V14.01,2013-01-14 23:56:00,
2013-01-14 18:57:00,21.6,18.0,29.47,ENE,72,0.0,0.0,86,0.00,,,0.00,VWS V14.01,2013-01-14 23:57:00,
2013-01-14 18:58:00,21.4,17.9,29.47,ENE,72,0.0,0.0,86,0.00,,,0.00,VWS V14.01,2013-01-14 23:58:00,
2013-01-14 18:59:00,21.4,17.9,29.47,ENE,72,0.0,0.0,86,0.00,,,0.00,VWS V14.01,2013-01-14 23:59:00,
2013-01-14 19:01:00,21.4,17.9,29.47,ENE,72,0.0,0.0,86,0.00,,,0.00,VWS V14.01,2013-01-15 00:01:00,
2013-01-14 19:02:00,21.4,17.9,29.47,ENE,72,0.0,0.0,86,0.00,,,0.00,VWS V14.01,2013-01-15 00:02:00,
2013-01-14 19:03:00,21.4,17.9,29.47,ENE,72,0.0,0.0,86,0.00,,,0.00,VWS V14.01,2013-01-15 00:03:00,
2013-01-14 19:04:00,21.4,17.9,29.47,ENE,72,0.0,0.0,86,0.00,,,0.00,VWS V14.01,2013-01-15 00:04:00,
2013-01-14 19:06:00,21.2,17.7,29.47,ENE,72,0.0,0.0,86,0.00,,,0.00,VWS V14.01,2013-01-15 00:06:00,
2013-01-14 19:07:00,21.2,17.7,29.47,ENE,72,0.0,0.0,86,0.00,,,0.00,VWS V14.01,2013-01-15 00:07:00,
2013-01-14 19:08:00,21.2,17.7,29.47,ENE,72,0.0,0.0,86,0.00,,,0.00,VWS V14.01,2013-01-15 00:08:00,
2013-01-14 19:09:00,21.2,17.7,29.47,ENE,72,0.0,0.0,86,0.00,,,0.00,VWS V14.01,2013-01-15 00:09:00,
2013-01-14 19:11:00,21.2,17.9,29.47,ENE,72,0.0,0.0,87,0.00,,,0.00,VWS V14.01,2013-01-15 00:11:00,
2013-01-14 19:12:00,21.2,17.9,29.47,ENE,72,0.0,0.0,87,0.00,,,0.00,VWS V14.01,2013-01-15 00:12:00,
2013-01-14 19:13:00,21.2,17.9,29.47,ENE,72,0.0,0.0,87,0.00,,,0.00,VWS V14.01,2013-01-15 00:13:00,
2013-01-14 19:14:00,21.2,17.9,29.47,ENE,72,0.0,0.0,87,0.00,,,0.00,VWS V14.01,2013-01-15 00:14:00,
2013-01-14 19:16:00,21.2,17.9,29.47,ENE,72,0.0,0.0,87,0.00,,,0.00,VWS V14.01,2013-01-15 00:16:00,
2013-01-14 19:17:00,21.2,17.9,29.47,ENE,72,0.0,0.0,87,0.00,,,0.00,VWS V14.01,2013-01-15 00:17:00,
2013-01-14 19:19:00,21.2,17.9,29.47,ENE,72,0.0,0.0,87,0.00,,,0.00,VWS V14.01,2013-01-15 00:19:00,
2013-01-14 19:22:00,21.2,17.9,29.47,ENE,72,0.0,0.0,87,0.00,,,0.00,VWS V14.01,2013-01-15 00:22:00,
2013-01-14 19:24:00,21.2,17.9,29.47,ENE,72,0.0,0.0,87,0.00,,,0.00,VWS V14.01,2013-01-15 00:24:00,
2013-01-14 19:27:00,21.2,17.9,29.47,ENE,72,0.0,0.0,87,0.00,,,0.00,VWS V14.01,2013-01-15 00:27:00,
2013-01-14 19:29:00,21.2,17.9,29.47,ENE,72,0.0,0.0,87,0.00,,,0.00,VWS V14.01,2013-01-15 00:29:00,
2013-01-14 19:32:00,21.2,17.9,29.47,ENE,72,0.0,0.0,87,0.00,,,0.00,VWS V14.01,2013-01-15 00:32:00,
2013-01-14 19:34:00,21.2,17.9,29.47,ENE,72,0.0,0.0,87,0.00,,,0.00,VWS V14.01,2013-01-15 00:34:00,
2013-01-14 19:37:00,21.0,18.0,29.47,ENE,72,0.0,0.0,88,0.00,,,0.00,VWS V14.01,2013-01-15 00:37:00,
2013-01-14 19:39:00,21.0,18.0,29.47,ENE,72,0.0,0.0,88,0.00,,,0.00,VWS V14.01,2013-01-15 00:39:00,
2013-01-14 19:42:00,21.0,18.0,29.47,ENE,72,0.0,0.0,88,0.00,,,0.00,VWS V14.01,2013-01-15 00:42:00,
2013-01-14 19:44:00,21.0,18.0,29.47,ENE,72,0.0,0.0,88,0.00,,,0.00,VWS V14.01,2013-01-15 00:44:00,
2013-01-14 19:47:00,20.8,17.9,29.47,ENE,72,0.0,0.0,88,0.00,,,0.00,VWS V14.01,2013-01-15 00:47:00,
2013-01-14 19:49:00,20.8,17.9,29.47,ENE,72,0.0,0.0,88,0.00,,,0.00,VWS V14.01,2013-01-15 00:49:00,
2013-01-14 19:52:00,20.8,17.9,29.47,ENE,72,0.0,0.0,88,0.00,,,0.00,VWS V14.01,2013-01-15 00:52:00,
2013-01-14 19:54:00,20.7,17.7,29.47,ENE,72,0.0,0.0,88,0.00,,,0.00,VWS V14.01,2013-01-15 00:54:00,
2013-01-14 19:55:00,20.7,17.7,29.47,ENE,72,0.0,0.0,88,0.00,,,0.00,VWS V14.01,2013-01-15 00:55:00,
2013-01-14 19:57:00,20.7,17.7,29.44,ENE,72,0.0,0.0,88,0.00,,,0.00,VWS V14.01,2013-01-15 00:57:00,
2013-01-14 19:59:00,20.7,17.7,29.44,ENE,72,0.0,0.0,88,0.00,,,0.00,VWS V14.01,2013-01-15 00:59:00,
2013-01-14 20:00:00,20.7,17.7,29.44,ENE,72,0.0,0.0,88,0.00,,,0.00,VWS V14.01,2013-01-15 01:00:00,
2013-01-14 20:02:00,20.7,17.9,29.44,ENE,72,0.0,0.0,89,0.00,,,0.00,VWS V14.01,2013-01-15 01:02:00,
2013-01-14 20:04:00,20.5,17.8,29.44,ENE,72,0.0,0.0,89,0.00,,,0.00,VWS V14.01,2013-01-15 01:04:00,
2013-01-14 20:05:00,20.5,17.8,29.44,ENE,72,0.0,0.0,89,0.00,,,0.00,VWS V14.01,2013-01-15 01:05:00,
2013-01-14 20:07:00,20.5,17.8,29.47,ENE,72,0.0,0.0,89,0.00,,,0.00,VWS V14.01,2013-01-15 01:07:00,
2013-01-14 20:08:00,20.5,17.8,29.47,ENE,72,0.0,0.0,89,0.00,,,0.00,VWS V14.01,2013-01-15 01:08:00,
2013-01-14 20:09:00,20.5,17.8,29.47,ENE,72,0.0,0.0,89,0.00,,,0.00,VWS V14.01,2013-01-15 01:09:00,
2013-01-14 20:10:00,20.5,17.8,29.47,ENE,72,0.0,0.0,89,0.00,,,0.00,VWS V14.01,2013-01-15 01:10:00,
2013-01-14 20:13:00,20.5,17.8,29.47,ENE,72,0.0,0.0,89,0.00,,,0.00,VWS V14.01,2013-01-15 01:13:00,
2013-01-14 20:14:00,20.5,17.8,29.47,ENE,72,0.0,0.0,89,0.00,,,0.00,VWS V14.01,2013-01-15 01:14:00,
2013-01-14 20:15:00,20.5,17.8,29.47,ENE,72,0.0,0.0,89,0.00,,,0.00,VWS V14.01,2013-01-15 01:15:00,
2013-01-14 20:18:00,20.5,17.8,29.47,ENE,72,0.0,0.0,89,0.00,,,0.00,VWS V14.01,2013-01-15 01:18:00,
2013-01-14 20:19:00,20.5,17.8,29.47,ENE,72,0.0,0.0,89,0.00,,,0.00,VWS V14.01,2013-01-15 01:19:00,
2013-01-14 20:20:00,20.5,17.8,29.47,ENE,72,0.0,0.0,89,0.00,,,0.00,VWS V14.01,2013-01-15 01:20:00,
2013-01-14 20:23:00,20.5,17.8,29.47,ENE,72,0.0,0.0,89,0.00,,,0.00,VWS V14.01,2013-01-15 01:23:00,
2013-01-14 20:24:00,20.5,17.8,29.47,ENE,72,0.0,0.0,89,0.00,,,0.00,VWS V14.01,2013-01-15 01:24:00,
2013-01-14 20:25:00,20.5,17.8,29.47,ENE,72,0.0,0.0,89,0.00,,,0.00,VWS V14.01,2013-01-15 01:25:00,
2013-01-14 20:28:00,20.5,18.0,29.47,ENE,72,0.0,0.0,90,0.00,,,0.00,VWS V14.01,2013-01-15 01:28:00,
2013-01-14 20:29:00,20.3,17.8,29.47,ENE,72,0.0,0.0,90,0.00,,,0.00,VWS V14.01,2013-01-15 01:29:00,
2013-01-14 20:31:00,20.3,17.8,29.47,ENE,72,0.0,0.0,90,0.00,,,0.00,VWS V14.01,2013-01-15 01:31:00,
2013-01-14 20:33:00,20.3,17.8,29.47,ENE,72,0.0,0.0,90,0.00,,,0.00,VWS V14.01,2013-01-15 01:33:00,
2013-01-14 20:34:00,20.3,17.8,29.47,ENE,72,0.0,0.0,90,0.00,,,0.00,VWS V14.01,2013-01-15 01:34:00,
2013-01-14 20:36:00,20.3,17.8,29.47,ENE,72,0.0,0.0,90,0.00,,,0.00,VWS V14.01,2013-01-15 01:36:00,
2013-01-14 20:38:00,20.3,17.8,29.47,ENE,72,0.0,0.0,90,0.00,,,0.00,VWS V14.01,2013-01-15 01:38:00,
2013-01-14 20:40:00,20.3,17.8,29.47,ENE,72,0.0,0.0,90,0.00,,,0.00,VWS V14.01,2013-01-15 01:40:00,
2013-01-14 20:41:00,20.3,17.8,29.47,ENE,72,0.0,0.0,90,0.00,,,0.00,VWS V14.01,2013-01-15 01:41:00,
2013-01-14 20:43:00,20.3,17.8,29.47,ENE,72,0.0,0.0,90,0.00,,,0.00,VWS V14.01,2013-01-15 01:43:00,
2013-01-14 20:45:00,20.3,17.8,29.47,ENE,72,0.0,0.0,90,0.00,,,0.00,VWS V14.01,2013-01-15 01:45:00,
2013-01-14 20:46:00,20.3,17.8,29.47,ENE,72,0.0,0.0,90,0.00,,,0.00,VWS V14.01,2013-01-15 01:46:00,
2013-01-14 20:48:00,20.3,17.8,29.47,ENE,72,0.0,0.0,90,0.00,,,0.00,VWS V14.01,2013-01-15 01:48:00,
2013-01-14 20:50:00,20.3,17.8,29.47,ENE,72,0.0,0.0,90,0.00,,,0.00,VWS V14.01,2013-01-15 01:50:00,
2013-01-14 20:51:00,20.3,17.8,29.47,ENE,72,0.0,0.0,90,0.00,,,0.00,VWS V14.01,2013-01-15 01:51:00,
2013-01-14 20:53:00,20.3,17.8,29.47,ENE,72,0.0,0.0,90,0.00,,,0.00,VWS V14.01,2013-01-15 01:53:00,
2013-01-14 20:55:00,20.3,18.1,29.47,ENE,72,0.0,0.0,91,0.00,,,0.00,VWS V14.01,2013-01-15 01:55:00,
2013-01-14 20:56:00,20.3,18.1,29.47,ENE,72,0.0,0.0,91,0.00,,,0.00,VWS V14.01,2013-01-15 01:56:00,
2013-01-14 20:58:00,20.3,18.1,29.47,ENE,72,0.0,0.0,91,0.00,,,0.00,VWS V14.01,2013-01-15 01:58:00,
2013-01-14 21:00:00,20.3,18.1,29.47,ENE,72,0.0,0.0,91,0.00,,,0.00,VWS V14.01,2013-01-15 02:00:00,
2013-01-14 21:01:00,20.3,18.1,29.47,ENE,72,0.0,0.0,91,0.00,,,0.00,VWS V14.01,2013-01-15 02:01:00,
2013-01-14 21:03:00,20.3,18.1,29.47,ENE,72,0.0,0.0,91,0.00,,,0.00,VWS V14.01,2013-01-15 02:03:00,
2013-01-14 21:04:00,20.3,18.1,29.47,ENE,72,0.0,0.0,91,0.00,,,0.00,VWS V14.01,2013-01-15 02:04:00,
2013-01-14 21:05:00,20.3,18.1,29.47,ENE,72,0.0,0.0,91,0.00,,,0.00,VWS V14.01,2013-01-15 02:05:00,
2013-01-14 21:06:00,20.3,18.1,29.47,ENE,72,0.0,0.0,91,0.00,,,0.00,VWS V14.01,2013-01-15 02:06:00,
2013-01-14 21:08:00,20.3,18.1,29.44,ENE,72,0.0,0.0,91,0.00,,,0.00,VWS V14.01,2013-01-15 02:08:00,
2013-01-14 21:09:00,20.3,18.1,29.44,ENE,72,0.0,0.0,91,0.00,,,0.00,VWS V14.01,2013-01-15 02:09:00,
2013-01-14 21:10:00,20.3,18.1,29.44,ENE,72,0.0,0.0,91,0.00,,,0.00,VWS V14.01,2013-01-15 02:10:00,
2013-01-14 21:11:00,20.1,17.9,29.44,ENE,72,0.0,0.0,91,0.00,,,0.00,VWS V14.01,2013-01-15 02:11:00,
2013-01-14 21:14:00,20.1,17.9,29.44,ENE,72,0.0,0.0,91,0.00,,,0.00,VWS V14.01,2013-01-15 02:14:00,
2013-01-14 21:16:00,20.1,17.9,29.44,ENE,72,0.0,0.0,91,0.00,,,0.00,VWS V14.01,2013-01-15 02:16:00,
2013-01-14 21:19:00,20.1,17.9,29.44,ENE,72,0.0,0.0,91,0.00,,,0.00,VWS V14.01,2013-01-15 02:19:00,
2013-01-14 21:21:00,19.9,17.7,29.44,ENE,72,0.0,0.0,91,0.00,,,0.00,VWS V14.01,2013-01-15 02:21:00,
2013-01-14 21:24:00,19.9,17.7,29.44,ENE,72,0.0,0.0,91,0.00,,,0.00,VWS V14.01,2013-01-15 02:24:00,
2013-01-14 21:26:00,19.9,17.7,29.44,ENE,72,0.0,0.0,91,0.00,,,0.00,VWS V14.01,2013-01-15 02:26:00,
2013-01-14 21:29:00,19.9,17.7,29.44,ENE,72,0.0,0.0,91,0.00,,,0.00,VWS V14.01,2013-01-15 02:29:00,
2013-01-14 21:31:00,19.9,18.0,29.44,ENE,72,0.0,0.0,92,0.00,,,0.00,VWS V14.01,2013-01-15 02:31:00,
2013-01-14 21:34:00,19.9,18.0,29.44,ENE,72,0.0,0.0,92,0.00,,,0.00,VWS V14.01,2013-01-15 02:34:00,
2013-01-14 21:36:00,19.9,18.0,29.44,ENE,72,0.0,0.0,92,0.00,,,0.00,VWS V14.01,2013-01-15 02:36:00,
2013-01-14 21:37:00,19.9,18.0,29.44,ENE,72,0.0,0.0,92,0.00,,,0.00,VWS V14.01,2013-01-15 02:37:00,
2013-01-14 21:39:00,19.9,18.0,29.44,ENE,72,0.0,0.0,92,0.00,,,0.00,VWS V14.01,2013-01-15 02:39:00,
2013-01-14 21:41:00,19.9,18.0,29.44,ENE,72,0.0,0.0,92,0.00,,,0.00,VWS V14.01,2013-01-15 02:41:00,
2013-01-14 21:42:00,19.8,17.8,29.44,ENE,72,0.0,0.0,92,0.00,,,0.00,VWS V14.01,2013-01-15 02:42:00,
2013-01-14 21:44:00,19.8,17.8,29.44,ENE,72,0.0,0.0,92,0.00,,,0.00,VWS V14.01,2013-01-15 02:44:00,
2013-01-14 21:46:00,19.8,17.8,29.44,ENE,72,0.0,0.0,92,0.00,,,0.00,VWS V14.01,2013-01-15 02:46:00,
2013-01-14 21:47:00,19.8,17.8,29.44,ENE,72,0.0,0.0,92,0.00,,,0.00,VWS V14.01,2013-01-15 02:47:00,
2013-01-14 21:49:00,19.8,17.8,29.44,ENE,72,0.0,0.0,92,0.00,,,0.00,VWS V14.01,2013-01-15 02:49:00,
2013-01-14 21:51:00,19.8,17.8,29.44,ENE,72,0.0,0.0,92,0.00,,,0.00,VWS V14.01,2013-01-15 02:51:00,
2013-01-14 21:52:00,19.8,17.8,29.44,ENE,72,0.0,0.0,92,0.00,,,0.00,VWS V14.01,2013-01-15 02:52:00,
2013-01-14 21:54:00,19.8,17.8,29.44,ENE,72,0.0,0.0,92,0.00,,,0.00,VWS V14.01,2013-01-15 02:54:00,
2013-01-14 21:55:00,19.2,17.3,29.44,ENE,72,0.0,0.0,92,0.00,,,0.00,VWS V14.01,2013-01-15 02:55:00,
2013-01-14 21:56:00,19.2,17.3,29.44,ENE,72,0.0,0.0,92,0.00,,,0.00,VWS V14.01,2013-01-15 02:56:00,
2013-01-14 21:57:00,19.0,16.9,29.44,ENE,72,0.0,0.0,91,0.00,,,0.00,VWS V14.01,2013-01-15 02:57:00,
2013-01-14 21:59:00,18.9,16.7,29.44,ENE,72,0.0,0.0,91,0.00,,,0.00,VWS V14.01,2013-01-15 02:59:00,
2013-01-14 22:00:00,18.9,16.7,29.44,ENE,72,0.0,0.0,91,0.00,,,0.00,VWS V14.01,2013-01-15 03:00:00,
2013-01-14 22:01:00,18.9,16.7,29.44,ENE,72,0.0,0.0,91,0.00,,,0.00,VWS V14.01,2013-01-15 03:01:00,
2013-01-14 22:02:00,18.5,16.3,29.44,ENE,72,0.0,0.0,91,0.00,,,0.00,VWS V14.01,2013-01-15 03:02:00,
2013-01-14 22:04:00,18.3,16.1,29.44,ENE,72,0.0,0.0,91,0.00,,,0.00,VWS V14.01,2013-01-15 03:04:00,
2013-01-14 22:05:00,18.3,16.1,29.44,ENE,72,0.0,0.0,91,0.00,,,0.00,VWS V14.01,2013-01-15 03:05:00,
2013-01-14 22:06:00,18.3,16.1,29.44,ENE,72,0.0,0.0,91,0.00,,,0.00,VWS V14.01,2013-01-15 03:06:00,
2013-01-14 22:07:00,18.3,16.1,29.44,ENE,72,0.0,0.0,91,0.00,,,0.00,VWS V14.01,2013-01-15 03:07:00,
2013-01-14 22:09:00,18.3,16.1,29.44,ENE,72,0.0,0.0,91,0.00,,,0.00,VWS V14.01,2013-01-15 03:09:00,
2013-01-14 22:10:00,18.1,16.2,29.44,ENE,72,0.0,0.0,92,0.00,,,0.00,VWS V14.01,2013-01-15 03:10:00,
2013-01-14 22:11:00,18.1,16.2,29.44,ENE,72,0.0,0.0,92,0.00,,,0.00,VWS V14.01,2013-01-15 03:11:00,
2013-01-14 22:12:00,18.1,16.2,29.44,ENE,72,0.0,0.0,92,0.00,,,0.00,VWS V14.01,2013-01-15 03:12:00,
2013-01-14 22:14:00,18.1,16.2,29.44,ENE,72,0.0,0.0,92,0.00,,,0.00,VWS V14.01,2013-01-15 03:14:00,
2013-01-14 22:15:00,18.1,16.2,29.44,ENE,72,0.0,0.0,92,0.00,,,0.00,VWS V14.01,2013-01-15 03:15:00,
2013-01-14 22:17:00,18.1,16.2,29.44,ENE,72,0.0,0.0,92,0.00,,,0.00,VWS V14.01,2013-01-15 03:17:00,
2013-01-14 22:20:00,18.1,16.2,29.44,ENE,72,0.0,0.0,92,0.00,,,0.00,VWS V14.01,2013-01-15 03:20:00,
2013-01-14 22:22:00,18.5,16.8,29.44,ENE,72,0.0,0.0,93,0.00,,,0.00,VWS V14.01,2013-01-15 03:22:00,
2013-01-14 22:23:00,18.7,17.0,29.44,ENE,72,0.0,0.0,93,0.00,,,0.00,VWS V14.01,2013-01-15 03:23:00,
2013-01-14 22:25:00,18.9,17.2,29.44,ENE,72,0.0,0.0,93,0.00,,,0.00,VWS V14.01,2013-01-15 03:25:00,
2013-01-14 22:26:00,18.9,17.2,29.44,ENE,72,0.0,0.0,93,0.00,,,0.00,VWS V14.01,2013-01-15 03:26:00,
2013-01-14 22:27:00,18.9,17.2,29.44,ENE,72,0.0,0.0,93,0.00,,,0.00,VWS V14.01,2013-01-15 03:27:00,
2013-01-14 22:28:00,18.9,17.2,29.44,ENE,72,0.0,0.0,93,0.00,,,0.00,VWS V14.01,2013-01-15 03:28:00,
2013-01-14 22:30:00,19.2,17.8,29.44,ENE,72,0.0,0.0,94,0.00,,,0.00,VWS V14.01,2013-01-15 03:30:00,
2013-01-14 22:31:00,19.2,17.8,29.44,ENE,72,0.0,0.0,94,0.00,,,0.00,VWS V14.01,2013-01-15 03:31:00,
2013-01-14 22:32:00,19.2,17.8,29.44,ENE,72,0.0,0.0,94,0.00,,,0.00,VWS V14.01,2013-01-15 03:32:00,
2013-01-14 22:33:00,19.2,17.8,29.44,ENE,72,0.0,0.0,94,0.00,,,0.00,VWS V14.01,2013-01-15 03:33:00,
2013-01-14 22:35:00,19.4,18.0,29.44,ENE,72,0.0,0.0,94,0.00,,,0.00,VWS V14.01,2013-01-15 03:35:00,
2013-01-14 22:36:00,19.4,18.0,29.44,ENE,72,0.0,0.0,94,0.00,,,0.00,VWS V14.01,2013-01-15 03:36:00,
2013-01-14 22:37:00,19.4,18.0,29.44,ENE,72,0.0,0.0,94,0.00,,,0.00,VWS V14.01,2013-01-15 03:37:00,
2013-01-14 22:38:00,19.4,18.0,29.44,ENE,72,0.0,0.0,94,0.00,,,0.00,VWS V14.01,2013-01-15 03:38:00,
2013-01-14 22:40:00,19.4,18.0,29.44,ENE,72,0.0,0.0,94,0.00,,,0.00,VWS V14.01,2013-01-15 03:40:00,
2013-01-14 22:41:00,19.4,18.0,29.44,ENE,72,0.0,0.0,94,0.00,,,0.00,VWS V14.01,2013-01-15 03:41:00,
2013-01-14 22:42:00,19.4,18.0,29.44,ENE,72,0.0,0.0,94,0.00,,,0.00,VWS V14.01,2013-01-15 03:42:00,
2013-01-14 22:43:00,19.4,18.0,29.44,ENE,72,0.0,0.0,94,0.00,,,0.00,VWS V14.01,2013-01-15 03:43:00,
2013-01-14 22:45:00,19.4,18.0,29.44,ENE,72,0.0,0.0,94,0.00,,,0.00,VWS V14.01,2013-01-15 03:45:00,
2013-01-14 22:46:00,19.4,18.0,29.44,ENE,72,0.0,0.0,94,0.00,,,0.00,VWS V14.01,2013-01-15 03:46:00,
2013-01-14 22:47:00,19.4,18.2,29.44,ENE,72,0.0,0.0,95,0.00,,,0.00,VWS V14.01,2013-01-15 03:47:00,
2013-01-14 22:48:00,19.4,18.2,29.44,ENE,72,0.0,0.0,95,0.00,,,0.00,VWS V14.01,2013-01-15 03:48:00,
2013-01-14 22:50:00,19.4,18.2,29.44,ENE,72,0.0,0.0,95,0.00,,,0.00,VWS V14.01,2013-01-15 03:50:00,
2013-01-14 22:51:00,19.4,18.2,29.44,ENE,72,0.0,0.0,95,0.00,,,0.00,VWS V14.01,2013-01-15 03:51:00,
2013-01-14 22:52:00,19.4,18.2,29.44,ENE,72,0.0,0.0,95,0.00,,,0.00,VWS V14.01,2013-01-15 03:52:00,
2013-01-14 22:53:00,19.4,18.2,29.44,ENE,72,0.0,0.0,95,0.00,,,0.00,VWS V14.01,2013-01-15 03:53:00,
2013-01-14 22:56:00,19.4,18.2,29.44,ENE,72,0.0,0.0,95,0.00,,,0.00,VWS V14.01,2013-01-15 03:56:00,
2013-01-14 22:57:00,19.4,18.2,29.44,ENE,72,0.0,0.0,95,0.00,,,0.00,VWS V14.01,2013-01-15 03:57:00,
2013-01-14 22:58:00,19.4,18.2,29.44,ENE,72,0.0,0.0,95,0.00,,,0.00,VWS V14.01,2013-01-15 03:58:00,
2013-01-14 23:01:00,19.4,18.2,29.44,ENE,72,0.0,0.0,95,0.00,,,0.00,VWS V14.01,2013-01-15 04:01:00,
2013-01-14 23:02:00,19.4,18.2,29.44,ENE,72,0.0,0.0,95,0.00,,,0.00,VWS V14.01,2013-01-15 04:02:00,
2013-01-14 23:03:00,19.4,18.2,29.44,ENE,72,0.0,0.0,95,0.00,,,0.00,VWS V14.01,2013-01-15 04:03:00,
2013-01-14 23:06:00,19.4,18.2,29.44,ENE,72,0.0,0.0,95,0.00,,,0.00,VWS V14.01,2013-01-15 04:06:00,
2013-01-14 23:07:00,19.4,18.2,29.44,ENE,72,0.0,0.0,95,0.00,,,0.00,VWS V14.01,2013-01-15 04:07:00,
2013-01-14 23:08:00,19.4,18.2,29.44,ENE,72,0.0,0.0,95,0.00,,,0.00,VWS V14.01,2013-01-15 04:08:00,
2013-01-14 23:11:00,19.4,18.2,29.44,ENE,72,0.0,0.0,95,0.00,,,0.00,VWS V14.01,2013-01-15 04:11:00,
2013-01-14 23:12:00,19.4,18.2,29.44,ENE,72,0.0,0.0,95,0.00,,,0.00,VWS V14.01,2013-01-15 04:12:00,
2013-01-14 23:13:00,19.4,18.2,29.44,ENE,72,0.0,0.0,95,0.00,,,0.00,VWS V14.01,2013-01-15 04:13:00,
2013-01-14 23:16:00,19.2,18.0,29.44,ENE,72,0.0,0.0,95,0.00,,,0.00,VWS V14.01,2013-01-15 04:16:00,
2013-01-14 23:17:00,19.2,18.0,29.44,ENE,72,0.0,0.0,95,0.00,,,0.00,VWS V14.01,2013-01-15 04:17:00,
2013-01-14 23:18:00,19.2,18.0,29.44,ENE,72,0.0,0.0,95,0.00,,,0.00,VWS V14.01,2013-01-15 04:18:00,
2013-01-14 23:21:00,19.2,18.0,29.44,ENE,72,0.0,0.0,95,0.00,,,0.00,VWS V14.01,2013-01-15 04:21:00,
2013-01-14 23:22:00,19.2,18.0,29.44,ENE,72,0.0,0.0,95,0.00,,,0.00,VWS V14.01,2013-01-15 04:22:00,
2013-01-14 23:23:00,19.2,18.0,29.44,ENE,72,0.0,0.0,95,0.00,,,0.00,VWS V14.01,2013-01-15 04:23:00,
2013-01-14 23:26:00,19.2,18.0,29.44,ENE,72,0.0,0.0,95,0.00,,,0.00,VWS V14.01,2013-01-15 04:26:00,
2013-01-14 23:27:00,19.2,18.0,29.44,ENE,72,0.0,0.0,95,0.00,,,0.00,VWS V14.01,2013-01-15 04:27:00,
2013-01-14 23:28:00,19.2,18.0,29.44,ENE,72,0.0,0.0,95,0.00,,,0.00,VWS V14.01,2013-01-15 04:28:00,
2013-01-14 23:31:00,18.9,17.7,29.44,ENE,72,0.0,0.0,95,0.00,,,0.00,VWS V14.01,2013-01-15 04:31:00,
2013-01-14 23:32:00,18.9,17.7,29.44,ENE,72,0.0,0.0,95,0.00,,,0.00,VWS V14.01,2013-01-15 04:32:00,
2013-01-14 23:33:00,18.9,17.7,29.44,ENE,72,0.0,0.0,95,0.00,,,0.00,VWS V14.01,2013-01-15 04:33:00,
2013-01-14 23:36:00,18.9,17.7,29.44,ENE,72,0.0,0.0,95,0.00,,,0.00,VWS V14.01,2013-01-15 04:36:00,
2013-01-14 23:37:00,18.9,17.7,29.44,ENE,72,0.0,0.0,95,0.00,,,0.00,VWS V14.01,2013-01-15 04:37:00,
2013-01-14 23:38:00,18.9,17.7,29.44,ENE,72,0.0,0.0,95,0.00,,,0.00,VWS V14.01,2013-01-15 04:38:00,
2013-01-14 23:41:00,18.1,16.7,29.44,ENE,72,0.0,0.0,94,0.00,,,0.00,VWS V14.01,2013-01-15 04:41:00,
2013-01-14 23:42:00,18.1,16.7,29.44,ENE,72,0.0,0.0,94,0.00,,,0.00,VWS V14.01,2013-01-15 04:42:00,
2013-01-14 23:43:00,18.1,16.7,29.44,ENE,72,0.0,0.0,94,0.00,,,0.00,VWS V14.01,2013-01-15 04:43:00,
2013-01-14 23:44:00,18.1,16.7,29.44,ENE,72,0.0,0.0,94,0.00,,,0.00,VWS V14.01,2013-01-15 04:44:00,
2013-01-14 23:46:00,18.1,16.7,29.44,ENE,72,0.0,0.0,94,0.00,,,0.00,VWS V14.01,2013-01-15 04:46:00,
2013-01-14 23:47:00,17.6,16.2,29.44,ENE,72,0.0,0.0,94,0.00,,,0.00,VWS V14.01,2013-01-15 04:47:00,
2013-01-14 23:48:00,17.6,16.2,29.44,ENE,72,0.0,0.0,94,0.00,,,0.00,VWS V14.01,2013-01-15 04:48:00,
2013-01-14 23:49:00,17.6,16.2,29.44,ENE,72,0.0,0.0,94,0.00,,,0.00,VWS V14.01,2013-01-15 04:49:00,
2013-01-14 23:51:00,17.6,16.2,29.44,ENE,72,0.0,0.0,94,0.00,,,0.00,VWS V14.01,2013-01-15 04:51:00,
2013-01-14 23:52:00,17.6,16.2,29.44,ENE,72,0.0,0.0,94,0.00,,,0.00,VWS V14.01,2013-01-15 04:52:00,
2013-01-14 23:53:00,17.4,16.2,29.44,ENE,72,0.0,0.0,95,0.00,,,0.00,VWS V14.01,2013-01-15 04:53:00,
2013-01-14 23:54:00,17.4,16.2,29.44,ENE,72,0.0,0.0,95,0.00,,,0.00,VWS V14.01,2013-01-15 04:54:00,
2013-01-14 23:56:00,17.4,16.2,29.44,ENE,72,0.0,0.0,95,0.00,,,0.00,VWS V14.01,2013-01-15 04:56:00,
2013-01-14 23:58:00,17.4,16.2,29.44,ENE,72,0.0,0.0,95,0.00,,,0.00,VWS V14.01,2013-01-15 04:58:00,
2013-01-14 23:59:00,17.4,16.2,29.44,ENE,72,0.0,0.0,95,0.00,,,0.00,VWS V14.01,2013-01-15 04:59:00,